Observation data for Sweetwater on 08/20/2019      Previous  Date       Current Mesonet Observations  Soil Data  Daily Summary Page  Observations in Plain Language
KSW1 200500Z 12007KT 29/17 A3007 RMK A01 T02870165  RH  048%=      5-min Rain = 0
KSW1 200501Z 13008KT 29/17 A3007 RMK A01 T02870165  RH  048%=      5-min Rain = 0
KSW1 200502Z 13007KT 29/17 A3007 RMK A01 T02870165  RH  048%=      5-min Rain = 0
KSW1 200503Z 13008KT 29/17 A3007 RMK A01 T02860165  RH  048%=      5-min Rain = 0
KSW1 200504Z 12008KT 29/17 A3007 RMK A01 T02860165  RH  048%=      5-min Rain = 0
KSW1 200505Z 12008KT 29/17 A3007 RMK A01 T02860165  RH  048%=      5-min Rain = 0
KSW1 200506Z 13008KT 29/17 A3007 RMK A01 T02860165  RH  048%=      5-min Rain = 0
KSW1 200507Z 12009KT 29/17 A3007 RMK A01 T02860165  RH  048%=      5-min Rain = 0
KSW1 200508Z 13010KT 29/17 A3007 RMK A01 T02860165  RH  048%=      5-min Rain = 0
KSW1 200509Z 12008KT 29/17 A3007 RMK A01 T02860165  RH  048%=      5-min Rain = 0
KSW1 200510Z 13010KT 29/17 A3007 RMK A01 T02860165  RH  048%=      5-min Rain = 0
KSW1 200511Z 12009KT 29/17 A3007 RMK A01 T02860165  RH  048%=      5-min Rain = 0
KSW1 200512Z 13009KT 29/17 A3007 RMK A01 T02860165  RH  048%=      5-min Rain = 0
KSW1 200513Z 13009KT 29/17 A3007 RMK A01 T02860165  RH  048%=      5-min Rain = 0
KSW1 200514Z 13009KT 29/17 A3007 RMK A01 T02860165  RH  048%=      5-min Rain = 0
KSW1 200515Z 13010KT 29/17 A3007 RMK A01 T02860165  RH  048%=      5-min Rain = 0
KSW1 200516Z 13009KT 29/16 A3007 RMK A01 T02850164  RH  048%=      5-min Rain = 0
KSW1 200517Z 13010KT 29/17 A3007 RMK A01 T02860165  RH  048%=      5-min Rain = 0
KSW1 200518Z 13010KT 29/17 A3007 RMK A01 T02860165  RH  048%=      5-min Rain = 0
KSW1 200519Z 13010KT 29/17 A3007 RMK A01 T02860165  RH  048%=      5-min Rain = 0
KSW1 200520Z 13009KT 29/17 A3007 RMK A01 T02860165  RH  048%=      5-min Rain = 0
KSW1 200521Z 13010KT 29/17 A3007 RMK A01 T02860165  RH  048%=      5-min Rain = 0
KSW1 200522Z 13010KT 29/17 A3007 RMK A01 T02860165  RH  048%=      5-min Rain = 0
KSW1 200523Z 13010KT 29/17 A3007 RMK A01 T02860165  RH  048%=      5-min Rain = 0
KSW1 200524Z 13009KT 29/17 A3007 RMK A01 T02860165  RH  048%=      5-min Rain = 0
KSW1 200525Z 13010KT 29/17 A3007 RMK A01 T02860165  RH  048%=      5-min Rain = 0
KSW1 200526Z 13010KT 29/17 A3007 RMK A01 T02860165  RH  048%=      5-min Rain = 0
KSW1 200527Z 13011KT 29/17 A3007 RMK A01 T02870165  RH  048%=      5-min Rain = 0
KSW1 200528Z 14010KT 29/17 A3007 RMK A01 T02870165  RH  048%=      5-min Rain = 0
KSW1 200529Z 14009KT 29/17 A3007 RMK A01 T02880165  RH  048%=      5-min Rain = 0
KSW1 200530Z 14009KT 29/17 A3007 RMK A01 T02870165  RH  048%=      5-min Rain = 0
KSW1 200531Z 14009KT 29/17 A3007 RMK A01 T02870165  RH  048%=      5-min Rain = 0
KSW1 200532Z 14009KT 29/17 A3007 RMK A01 T02870165  RH  048%=      5-min Rain = 0
KSW1 200533Z 14011KT 29/17 A3007 RMK A01 T02870165  RH  048%=      5-min Rain = 0
KSW1 200534Z 15010KT 29/17 A3007 RMK A01 T02870165  RH  048%=      5-min Rain = 0
KSW1 200535Z 14010KT 29/17 A3007 RMK A01 T02870165  RH  048%=      5-min Rain = 0
KSW1 200536Z 14009KT 29/17 A3007 RMK A01 T02880165  RH  047%=      5-min Rain = 0
KSW1 200537Z 14010KT 29/17 A3007 RMK A01 T02880165  RH  048%=      5-min Rain = 0
KSW1 200538Z 14009KT 29/17 A3007 RMK A01 T02870165  RH  048%=      5-min Rain = 0
KSW1 200539Z 14009KT 29/17 A3007 RMK A01 T02870165  RH  048%=      5-min Rain = 0
KSW1 200540Z 14010KT 29/17 A3007 RMK A01 T02860165  RH  048%=      5-min Rain = 0
KSW1 200541Z 14009KT 29/17 A3007 RMK A01 T02860165  RH  048%=      5-min Rain = 0
KSW1 200542Z 14010KT 29/17 A3007 RMK A01 T02860165  RH  048%=      5-min Rain = 0
KSW1 200543Z 14010KT 29/17 A3007 RMK A01 T02860165  RH  048%=      5-min Rain = 0
KSW1 200544Z 14011KT 29/17 A3007 RMK A01 T02860165  RH  048%=      5-min Rain = 0
KSW1 200545Z 14010KT 29/16 A3007 RMK A01 T02860164  RH  048%=      5-min Rain = 0
KSW1 200546Z 15010KT 29/16 A3007 RMK A01 T02860164  RH  048%=      5-min Rain = 0
KSW1 200547Z 14010KT 29/16 A3007 RMK A01 T02860164  RH  048%=      5-min Rain = 0
KSW1 200548Z 14010KT 29/16 A3007 RMK A01 T02860164  RH  048%=      5-min Rain = 0
KSW1 200549Z 14009KT 29/17 A3007 RMK A01 T02860165  RH  048%=      5-min Rain = 0
KSW1 200550Z 14010KT 29/16 A3007 RMK A01 T02850164  RH  048%=      5-min Rain = 0
KSW1 200551Z 14011KT 29/16 A3007 RMK A01 T02850164  RH  048%=      5-min Rain = 0
KSW1 200552Z 14009KT 29/16 A3007 RMK A01 T02850164  RH  048%=      5-min Rain = 0
KSW1 200553Z 14009KT 29/16 A3007 RMK A01 T02850164  RH  048%=      5-min Rain = 0
KSW1 200554Z 14009KT 28/16 A3007 RMK A01 T02840164  RH  048%=      5-min Rain = 0
KSW1 200555Z 14010KT 28/16 A3007 RMK A01 T02840164  RH  048%=      5-min Rain = 0
KSW1 200556Z 14009KT 28/16 A3007 RMK A01 T02840164  RH  048%=      5-min Rain = 0
KSW1 200557Z 14010KT 28/16 A3007 RMK A01 T02840164  RH  048%=      5-min Rain = 0
KSW1 200558Z 14010KT 28/16 A3007 RMK A01 T02840164  RH  048%=      5-min Rain = 0
KSW1 200559Z 14009KT 28/16 A3007 RMK A01 T02840164  RH  048%=      5-min Rain = 0
KSW1 200600Z 14010KT 28/16 A3007 RMK A01 T02840164  RH  048%=      5-min Rain = 0
KSW1 200601Z 14010KT 28/16 A3007 RMK A01 T02840164  RH  048%=      5-min Rain = 0
KSW1 200602Z 14010KT 28/16 A3007 RMK A01 T02830164  RH  048%=      5-min Rain = 0
KSW1 200603Z 14009KT 28/16 A3007 RMK A01 T02830164  RH  048%=      5-min Rain = 0
KSW1 200604Z 14010KT 28/16 A3007 RMK A01 T02830164  RH  048%=      5-min Rain = 0
KSW1 200605Z 14010KT 28/16 A3007 RMK A01 T02830164  RH  048%=      5-min Rain = 0
KSW1 200606Z 14010KT 28/16 A3007 RMK A01 T02830164  RH  048%=      5-min Rain = 0
KSW1 200607Z 14009KT 28/16 A3007 RMK A01 T02830164  RH  048%=      5-min Rain = 0
KSW1 200608Z 14009KT 28/16 A3007 RMK A01 T02830164  RH  048%=      5-min Rain = 0
KSW1 200609Z 14009KT 28/16 A3007 RMK A01 T02830164  RH  048%=      5-min Rain = 0
KSW1 200610Z 14011KT 28/16 A3007 RMK A01 T02820164  RH  049%=      5-min Rain = 0
KSW1 200611Z 14010KT 28/16 A3007 RMK A01 T02820164  RH  049%=      5-min Rain = 0
KSW1 200612Z 14011KT 28/16 A3007 RMK A01 T02820164  RH  049%=      5-min Rain = 0
KSW1 200613Z 14010KT 28/16 A3007 RMK A01 T02820164  RH  049%=      5-min Rain = 0
KSW1 200614Z 14010KT 28/16 A3007 RMK A01 T02830164  RH  049%=      5-min Rain = 0
KSW1 200615Z 14010KT 28/16 A3007 RMK A01 T02830164  RH  049%=      5-min Rain = 0
KSW1 200616Z 14011KT 28/16 A3007 RMK A01 T02820164  RH  049%=      5-min Rain = 0
KSW1 200617Z 14010KT 28/16 A3007 RMK A01 T02820164  RH  049%=      5-min Rain = 0
KSW1 200618Z 14009KT 28/16 A3007 RMK A01 T02820164  RH  049%=      5-min Rain = 0
KSW1 200619Z 14009KT 28/16 A3007 RMK A01 T02810163  RH  049%=      5-min Rain = 0
KSW1 200620Z 14010KT 28/16 A3007 RMK A01 T02810163  RH  049%=      5-min Rain = 0
KSW1 200621Z 14011KT 28/16 A3007 RMK A01 T02810164  RH  049%=      5-min Rain = 0
KSW1 200622Z 14011KT 28/16 A3007 RMK A01 T02810163  RH  049%=      5-min Rain = 0
KSW1 200623Z 14011KT 28/16 A3007 RMK A01 T02810163  RH  049%=      5-min Rain = 0
KSW1 200624Z 14011KT 28/16 A3007 RMK A01 T02810163  RH  049%=      5-min Rain = 0
KSW1 200625Z 14011KT 28/16 A3007 RMK A01 T02810163  RH  049%=      5-min Rain = 0
KSW1 200626Z 14011KT 28/16 A3007 RMK A01 T02810163  RH  049%=      5-min Rain = 0
KSW1 200627Z 14011KT 28/16 A3007 RMK A01 T02810163  RH  049%=      5-min Rain = 0
KSW1 200628Z 14010KT 28/16 A3007 RMK A01 T02800163  RH  049%=      5-min Rain = 0
KSW1 200629Z 14010KT 28/16 A3007 RMK A01 T02800163  RH  049%=      5-min Rain = 0
KSW1 200630Z 14010KT 28/16 A3007 RMK A01 T02800163  RH  049%=      5-min Rain = 0
KSW1 200631Z 14011KT 28/16 A3007 RMK A01 T02800163  RH  049%=      5-min Rain = 0
KSW1 200632Z 14010KT 28/16 A3007 RMK A01 T02800163  RH  049%=      5-min Rain = 0
KSW1 200633Z 14010KT 28/16 A3007 RMK A01 T02800163  RH  049%=      5-min Rain = 0
KSW1 200634Z 14011KT 28/16 A3007 RMK A01 T02800163  RH  049%=      5-min Rain = 0
KSW1 200635Z 14010KT 28/16 A3007 RMK A01 T02790163  RH  049%=      5-min Rain = 0
KSW1 200636Z 14012KT 28/16 A3007 RMK A01 T02790163  RH  049%=      5-min Rain = 0
KSW1 200637Z 14010KT 28/16 A3007 RMK A01 T02790163  RH  049%=      5-min Rain = 0
KSW1 200638Z 14012KT 28/16 A3007 RMK A01 T02790163  RH  049%=      5-min Rain = 0
KSW1 200639Z 14011KT 28/16 A3007 RMK A01 T02790163  RH  049%=      5-min Rain = 0
KSW1 200640Z 14011KT 28/16 A3007 RMK A01 T02790163  RH  049%=      5-min Rain = 0
KSW1 200641Z 14010KT 28/16 A3007 RMK A01 T02790163  RH  049%=      5-min Rain = 0
KSW1 200642Z 14010KT 28/16 A3007 RMK A01 T02780162  RH  049%=      5-min Rain = 0
KSW1 200643Z 14010KT 28/16 A3007 RMK A01 T02780163  RH  050%=      5-min Rain = 0
KSW1 200644Z 14012KT 28/16 A3007 RMK A01 T02780163  RH  049%=      5-min Rain = 0
KSW1 200645Z 14010KT 28/16 A3007 RMK A01 T02780162  RH  049%=      5-min Rain = 0
KSW1 200646Z 14010KT 28/16 A3007 RMK A01 T02780162  RH  049%=      5-min Rain = 0
KSW1 200647Z 15009KT 28/16 A3007 RMK A01 T02780162  RH  049%=      5-min Rain = 0
KSW1 200648Z 14011KT 28/16 A3007 RMK A01 T02780162  RH  049%=      5-min Rain = 0
KSW1 200649Z 14010KT 28/16 A3007 RMK A01 T02770162  RH  050%=      5-min Rain = 0
KSW1 200650Z 14010KT 28/16 A3007 RMK A01 T02770163  RH  050%=      5-min Rain = 0
KSW1 200651Z 14011KT 28/16 A3007 RMK A01 T02770162  RH  050%=      5-min Rain = 0
KSW1 200652Z 15010KT 28/16 A3007 RMK A01 T02760162  RH  050%=      5-min Rain = 0
KSW1 200653Z 14010KT 28/16 A3007 RMK A01 T02760162  RH  050%=      5-min Rain = 0
KSW1 200654Z 15010KT 28/16 A3007 RMK A01 T02760162  RH  050%=      5-min Rain = 0
KSW1 200655Z 14010KT 28/16 A3007 RMK A01 T02760162  RH  050%=      5-min Rain = 0
KSW1 200656Z 15010KT 28/16 A3007 RMK A01 T02760162  RH  050%=      5-min Rain = 0
KSW1 200657Z 15010KT 28/16 A3007 RMK A01 T02760162  RH  050%=      5-min Rain = 0
KSW1 200658Z 15009KT 28/16 A3007 RMK A01 T02760162  RH  050%=      5-min Rain = 0
KSW1 200659Z 15011KT 28/16 A3007 RMK A01 T02760162  RH  050%=      5-min Rain = 0
KSW1 200700Z 15010KT 28/16 A3007 RMK A01 T02760161  RH  050%=      5-min Rain = 0
KSW1 200701Z 15011KT 28/16 A3007 RMK A01 T02760161  RH  049%=      5-min Rain = 0
KSW1 200702Z 14010KT 28/16 A3007 RMK A01 T02770161  RH  049%=      5-min Rain = 0
KSW1 200703Z 15011KT 28/16 A3007 RMK A01 T02770161  RH  049%=      5-min Rain = 0
KSW1 200704Z 15011KT 28/16 A3007 RMK A01 T02770161  RH  049%=      5-min Rain = 0
KSW1 200705Z 15009KT 28/16 A3007 RMK A01 T02760161  RH  049%=      5-min Rain = 0
KSW1 200706Z 15010KT 28/16 A3007 RMK A01 T02760161  RH  049%=      5-min Rain = 0
KSW1 200707Z 15010KT 28/16 A3007 RMK A01 T02760161  RH  050%=      5-min Rain = 0
KSW1 200708Z 15010KT 28/16 A3007 RMK A01 T02750161  RH  050%=      5-min Rain = 0
KSW1 200709Z 14010KT 28/16 A3007 RMK A01 T02750161  RH  050%=      5-min Rain = 0
KSW1 200710Z 15010KT 28/16 A3007 RMK A01 T02750161  RH  050%=      5-min Rain = 0
KSW1 200711Z 15010KT 28/16 A3007 RMK A01 T02750161  RH  050%=      5-min Rain = 0
KSW1 200712Z 15010KT 28/16 A3007 RMK A01 T02750161  RH  050%=      5-min Rain = 0
KSW1 200713Z 15011KT 28/16 A3007 RMK A01 T02750161  RH  050%=      5-min Rain = 0
KSW1 200714Z 15011KT 28/16 A3007 RMK A01 T02750161  RH  050%=      5-min Rain = 0
KSW1 200715Z 15010KT 28/16 A3007 RMK A01 T02750161  RH  050%=      5-min Rain = 0
KSW1 200716Z 15009KT 28/16 A3007 RMK A01 T02750161  RH  050%=      5-min Rain = 0
KSW1 200717Z 16010KT 28/16 A3007 RMK A01 T02750161  RH  050%=      5-min Rain = 0
KSW1 200718Z 15010KT 28/16 A3007 RMK A01 T02750161  RH  050%=      5-min Rain = 0
KSW1 200719Z 15010KT 27/16 A3007 RMK A01 T02740161  RH  050%=      5-min Rain = 0
KSW1 200720Z 15011KT 27/16 A3007 RMK A01 T02740161  RH  050%=      5-min Rain = 0
KSW1 200721Z 15010KT 27/16 A3007 RMK A01 T02740160  RH  050%=      5-min Rain = 0
KSW1 200722Z 15010KT 28/16 A3007 RMK A01 T02750161  RH  050%=      5-min Rain = 0
KSW1 200723Z 15011KT 28/16 A3007 RMK A01 T02750161  RH  050%=      5-min Rain = 0
KSW1 200724Z 15010KT 28/16 A3007 RMK A01 T02750161  RH  050%=      5-min Rain = 0
KSW1 200725Z 15010KT 28/16 A3007 RMK A01 T02750161  RH  050%=      5-min Rain = 0
KSW1 200726Z 15011KT 27/16 A3007 RMK A01 T02740161  RH  050%=      5-min Rain = 0
KSW1 200727Z 15010KT 27/16 A3007 RMK A01 T02740161  RH  050%=      5-min Rain = 0
KSW1 200728Z 15010KT 27/16 A3007 RMK A01 T02740161  RH  050%=      5-min Rain = 0
KSW1 200729Z 15009KT 27/16 A3007 RMK A01 T02740161  RH  050%=      5-min Rain = 0
KSW1 200730Z 14009KT 27/16 A3006 RMK A01 T02740161  RH  050%=      5-min Rain = 0
KSW1 200731Z 15010KT 27/16 A3006 RMK A01 T02730160  RH  050%=      5-min Rain = 0
KSW1 200732Z 15011KT 27/16 A3006 RMK A01 T02730161  RH  050%=      5-min Rain = 0
KSW1 200733Z 15010KT 27/16 A3006 RMK A01 T02730160  RH  050%=      5-min Rain = 0
KSW1 200734Z 15011KT 27/16 A3006 RMK A01 T02730161  RH  050%=      5-min Rain = 0
KSW1 200735Z 15010KT 27/16 A3006 RMK A01 T02730161  RH  050%=      5-min Rain = 0
KSW1 200736Z 15010KT 27/16 A3006 RMK A01 T02730161  RH  050%=      5-min Rain = 0
KSW1 200737Z 15009KT 27/16 A3006 RMK A01 T02730161  RH  050%=      5-min Rain = 0
KSW1 200738Z 15009KT 27/16 A3006 RMK A01 T02720161  RH  051%=      5-min Rain = 0
KSW1 200739Z 15010KT 27/16 A3006 RMK A01 T02720161  RH  051%=      5-min Rain = 0
KSW1 200740Z 15011KT 27/16 A3006 RMK A01 T02720161  RH  051%=      5-min Rain = 0
KSW1 200741Z 15010KT 27/16 A3006 RMK A01 T02710161  RH  051%=      5-min Rain = 0
KSW1 200742Z 15010KT 27/16 A3006 RMK A01 T02710161  RH  051%=      5-min Rain = 0
KSW1 200743Z 15009KT 27/16 A3006 RMK A01 T02710161  RH  051%=      5-min Rain = 0
KSW1 200744Z 15011KT 27/16 A3006 RMK A01 T02700160  RH  051%=      5-min Rain = 0
KSW1 200745Z 15009KT 27/16 A3006 RMK A01 T02710160  RH  051%=      5-min Rain = 0
KSW1 200746Z 15009KT 27/16 A3006 RMK A01 T02710161  RH  051%=      5-min Rain = 0
KSW1 200747Z 15009KT 27/16 A3006 RMK A01 T02700161  RH  051%=      5-min Rain = 0
KSW1 200748Z 15010KT 27/16 A3006 RMK A01 T02700161  RH  051%=      5-min Rain = 0
KSW1 200749Z 15009KT 27/16 A3006 RMK A01 T02700161  RH  051%=      5-min Rain = 0
KSW1 200750Z 15009KT 27/16 A3006 RMK A01 T02700161  RH  051%=      5-min Rain = 0
KSW1 200751Z 15010KT 27/16 A3006 RMK A01 T02700161  RH  051%=      5-min Rain = 0
KSW1 200752Z 15010KT 27/16 A3006 RMK A01 T02700161  RH  051%=      5-min Rain = 0
KSW1 200753Z 15009KT 27/16 A3006 RMK A01 T02700161  RH  051%=      5-min Rain = 0
KSW1 200754Z 15010KT 27/16 A3006 RMK A01 T02700161  RH  051%=      5-min Rain = 0
KSW1 200755Z 15010KT 27/16 A3006 RMK A01 T02700161  RH  051%=      5-min Rain = 0
KSW1 200756Z 15010KT 27/16 A3006 RMK A01 T02690161  RH  052%=      5-min Rain = 0
KSW1 200757Z 15010KT 27/16 A3006 RMK A01 T02690161  RH  052%=      5-min Rain = 0
KSW1 200758Z 15010KT 27/16 A3006 RMK A01 T02690161  RH  052%=      5-min Rain = 0
KSW1 200759Z 15011KT 27/16 A3006 RMK A01 T02690162  RH  052%=      5-min Rain = 0
KSW1 200800Z 15010KT 27/16 A3006 RMK A01 T02680162  RH  052%=      5-min Rain = 0
KSW1 200801Z 15010KT 27/16 A3006 RMK A01 T02680161  RH  052%=      5-min Rain = 0
KSW1 200802Z 15009KT 27/16 A3006 RMK A01 T02670161  RH  052%=      5-min Rain = 0
KSW1 200803Z 15011KT 27/16 A3006 RMK A01 T02670161  RH  052%=      5-min Rain = 0
KSW1 200804Z 15011KT 27/16 A3006 RMK A01 T02660161  RH  052%=      5-min Rain = 0
KSW1 200805Z 15011KT 27/16 A3006 RMK A01 T02670162  RH  053%=      5-min Rain = 0
KSW1 200806Z 15010KT 27/16 A3006 RMK A01 T02670162  RH  053%=      5-min Rain = 0
KSW1 200807Z 15010KT 27/16 A3006 RMK A01 T02660161  RH  053%=      5-min Rain = 0
KSW1 200808Z 16011KT 27/16 A3006 RMK A01 T02660162  RH  053%=      5-min Rain = 0
KSW1 200809Z 15010KT 27/16 A3006 RMK A01 T02660162  RH  053%=      5-min Rain = 0
KSW1 200810Z 15010KT 27/16 A3006 RMK A01 T02660162  RH  053%=      5-min Rain = 0
KSW1 200811Z 15010KT 27/16 A3006 RMK A01 T02660162  RH  053%=      5-min Rain = 0
KSW1 200812Z 15010KT 27/16 A3006 RMK A01 T02650162  RH  053%=      5-min Rain = 0
KSW1 200813Z 15010KT 27/16 A3006 RMK A01 T02650162  RH  053%=      5-min Rain = 0
KSW1 200814Z 15010KT 26/16 A3006 RMK A01 T02640162  RH  053%=      5-min Rain = 0
KSW1 200815Z 15010KT 26/16 A3006 RMK A01 T02640162  RH  053%=      5-min Rain = 0
KSW1 200816Z 15010KT 26/16 A3006 RMK A01 T02640162  RH  053%=      5-min Rain = 0
KSW1 200817Z 15010KT 26/16 A3006 RMK A01 T02640162  RH  053%=      5-min Rain = 0
KSW1 200818Z 15010KT 26/16 A3006 RMK A01 T02640162  RH  054%=      5-min Rain = 0
KSW1 200819Z 15010KT 26/16 A3006 RMK A01 T02640162  RH  054%=      5-min Rain = 0
KSW1 200820Z 15010KT 26/16 A3006 RMK A01 T02630162  RH  054%=      5-min Rain = 0
KSW1 200821Z 15010KT 26/16 A3006 RMK A01 T02630162  RH  054%=      5-min Rain = 0
KSW1 200822Z 15011KT 26/16 A3006 RMK A01 T02620162  RH  054%=      5-min Rain = 0
KSW1 200823Z 15009KT 26/16 A3006 RMK A01 T02620162  RH  054%=      5-min Rain = 0
KSW1 200824Z 15010KT 26/16 A3006 RMK A01 T02620162  RH  054%=      5-min Rain = 0
KSW1 200825Z 15009KT 26/16 A3006 RMK A01 T02610162  RH  054%=      5-min Rain = 0
KSW1 200826Z 15009KT 26/16 A3006 RMK A01 T02610162  RH  054%=      5-min Rain = 0
KSW1 200827Z 15010KT 26/16 A3006 RMK A01 T02610162  RH  054%=      5-min Rain = 0
KSW1 200828Z 16010KT 26/16 A3006 RMK A01 T02610162  RH  054%=      5-min Rain = 0
KSW1 200829Z 15010KT 26/16 A3006 RMK A01 T02610162  RH  055%=      5-min Rain = 0
KSW1 200830Z 15010KT 26/16 A3006 RMK A01 T02600162  RH  055%=      5-min Rain = 0
KSW1 200831Z 15010KT 26/16 A3006 RMK A01 T02600162  RH  055%=      5-min Rain = 0
KSW1 200832Z 15010KT 26/16 A3006 RMK A01 T02600162  RH  055%=      5-min Rain = 0
KSW1 200833Z 15011KT 26/16 A3006 RMK A01 T02600162  RH  055%=      5-min Rain = 0
KSW1 200834Z 15010KT 26/16 A3006 RMK A01 T02600162  RH  055%=      5-min Rain = 0
KSW1 200835Z 15010KT 26/16 A3006 RMK A01 T02600162  RH  055%=      5-min Rain = 0
KSW1 200836Z 15011KT 26/16 A3006 RMK A01 T02600162  RH  055%=      5-min Rain = 0
KSW1 200837Z 15009KT 26/16 A3006 RMK A01 T02600162  RH  055%=      5-min Rain = 0
KSW1 200838Z 15009KT 26/16 A3006 RMK A01 T02590162  RH  055%=      5-min Rain = 0
KSW1 200839Z 15010KT 26/16 A3006 RMK A01 T02590162  RH  055%=      5-min Rain = 0
KSW1 200840Z 15010KT 26/16 A3006 RMK A01 T02590162  RH  055%=      5-min Rain = 0
KSW1 200841Z 15009KT 26/16 A3006 RMK A01 T02590162  RH  055%=      5-min Rain = 0
KSW1 200842Z 16010KT 26/16 A3006 RMK A01 T02580162  RH  055%=      5-min Rain = 0
KSW1 200843Z 16011KT 26/16 A3006 RMK A01 T02580162  RH  055%=      5-min Rain = 0
KSW1 200844Z 15010KT 26/16 A3006 RMK A01 T02580162  RH  055%=      5-min Rain = 0
KSW1 200845Z 15009KT 26/16 A3006 RMK A01 T02580162  RH  055%=      5-min Rain = 0
KSW1 200846Z 15009KT 26/16 A3006 RMK A01 T02580162  RH  056%=      5-min Rain = 0
KSW1 200847Z 15010KT 26/16 A3006 RMK A01 T02570162  RH  056%=      5-min Rain = 0
KSW1 200848Z 16010KT 26/16 A3006 RMK A01 T02560162  RH  056%=      5-min Rain = 0
KSW1 200849Z 15009KT 26/16 A3006 RMK A01 T02560162  RH  056%=      5-min Rain = 0
KSW1 200850Z 15010KT 26/16 A3006 RMK A01 T02560162  RH  056%=      5-min Rain = 0
KSW1 200851Z 15009KT 26/16 A3006 RMK A01 T02560162  RH  056%=      5-min Rain = 0
KSW1 200852Z 15009KT 26/16 A3006 RMK A01 T02560162  RH  056%=      5-min Rain = 0
KSW1 200853Z 15009KT 26/16 A3006 RMK A01 T02560162  RH  056%=      5-min Rain = 0
KSW1 200854Z 15009KT 26/16 A3006 RMK A01 T02550162  RH  056%=      5-min Rain = 0
KSW1 200855Z 15009KT 26/16 A3006 RMK A01 T02550162  RH  057%=      5-min Rain = 0
KSW1 200856Z 16009KT 25/16 A3006 RMK A01 T02540162  RH  057%=      5-min Rain = 0
KSW1 200857Z 15009KT 26/16 A3006 RMK A01 T02550162  RH  057%=      5-min Rain = 0
KSW1 200858Z 15010KT 26/16 A3006 RMK A01 T02550162  RH  057%=      5-min Rain = 0
KSW1 200859Z 15010KT 26/16 A3006 RMK A01 T02550162  RH  057%=      5-min Rain = 0
KSW1 200900Z 15010KT 26/16 A3006 RMK A01 T02550162  RH  057%=      5-min Rain = 0
KSW1 200901Z 15010KT 26/16 A3006 RMK A01 T02550162  RH  057%=      5-min Rain = 0
KSW1 200902Z 15010KT 26/16 A3006 RMK A01 T02550162  RH  056%=      5-min Rain = 0
KSW1 200903Z 15010KT 26/16 A3006 RMK A01 T02550162  RH  056%=      5-min Rain = 0
KSW1 200904Z 15010KT 26/16 A3006 RMK A01 T02550162  RH  056%=      5-min Rain = 0
KSW1 200905Z 15009KT 26/16 A3006 RMK A01 T02550162  RH  056%=      5-min Rain = 0
KSW1 200906Z 15010KT 26/16 A3006 RMK A01 T02550163  RH  057%=      5-min Rain = 0
KSW1 200907Z 15009KT 26/16 A3006 RMK A01 T02550162  RH  057%=      5-min Rain = 0
KSW1 200908Z 15010KT 26/16 A3006 RMK A01 T02550162  RH  057%=      5-min Rain = 0
KSW1 200909Z 15010KT 25/16 A3006 RMK A01 T02540162  RH  057%=      5-min Rain = 0
KSW1 200910Z 15010KT 25/16 A3006 RMK A01 T02540162  RH  057%=      5-min Rain = 0
KSW1 200911Z 15010KT 25/16 A3006 RMK A01 T02540163  RH  057%=      5-min Rain = 0
KSW1 200912Z 15009KT 25/16 A3006 RMK A01 T02540163  RH  057%=      5-min Rain = 0
KSW1 200913Z 15010KT 25/16 A3006 RMK A01 T02540162  RH  057%=      5-min Rain = 0
KSW1 200914Z 15010KT 25/16 A3006 RMK A01 T02540162  RH  057%=      5-min Rain = 0
KSW1 200915Z 15009KT 25/16 A3006 RMK A01 T02540162  RH  057%=      5-min Rain = 0
KSW1 200916Z 15010KT 25/16 A3006 RMK A01 T02540163  RH  057%=      5-min Rain = 0
KSW1 200917Z 15010KT 25/16 A3006 RMK A01 T02540163  RH  057%=      5-min Rain = 0
KSW1 200918Z 15009KT 25/16 A3006 RMK A01 T02540163  RH  057%=      5-min Rain = 0
KSW1 200919Z 15009KT 25/16 A3006 RMK A01 T02540163  RH  057%=      5-min Rain = 0
KSW1 200920Z 15009KT 25/16 A3006 RMK A01 T02540163  RH  057%=      5-min Rain = 0
KSW1 200921Z 15009KT 25/16 A3006 RMK A01 T02530162  RH  057%=      5-min Rain = 0
KSW1 200922Z 15009KT 25/16 A3006 RMK A01 T02530162  RH  057%=      5-min Rain = 0
KSW1 200923Z 15009KT 25/16 A3006 RMK A01 T02540162  RH  057%=      5-min Rain = 0
KSW1 200924Z 15009KT 25/16 A3007 RMK A01 T02540163  RH  057%=      5-min Rain = 0
KSW1 200925Z 15009KT 25/16 A3007 RMK A01 T02540163  RH  057%=      5-min Rain = 0
KSW1 200926Z 15009KT 25/16 A3007 RMK A01 T02540163  RH  057%=      5-min Rain = 0
KSW1 200927Z 15008KT 25/16 A3007 RMK A01 T02540163  RH  057%=      5-min Rain = 0
KSW1 200928Z 15008KT 25/16 A3007 RMK A01 T02540163  RH  057%=      5-min Rain = 0
KSW1 200929Z 15008KT 25/16 A3007 RMK A01 T02540163  RH  057%=      5-min Rain = 0
KSW1 200930Z 15008KT 25/16 A3007 RMK A01 T02540163  RH  057%=      5-min Rain = 0
KSW1 200931Z 14008KT 25/16 A3007 RMK A01 T02530163  RH  057%=      5-min Rain = 0
KSW1 200932Z 15008KT 25/16 A3007 RMK A01 T02530163  RH  057%=      5-min Rain = 0
KSW1 200933Z 15009KT 25/16 A3007 RMK A01 T02530163  RH  057%=      5-min Rain = 0
KSW1 200934Z 14009KT 25/16 A3007 RMK A01 T02530163  RH  057%=      5-min Rain = 0
KSW1 200935Z 14008KT 25/16 A3007 RMK A01 T02530163  RH  058%=      5-min Rain = 0
KSW1 200936Z 14009KT 25/16 A3007 RMK A01 T02520163  RH  058%=      5-min Rain = 0
KSW1 200937Z 15009KT 25/16 A3007 RMK A01 T02520163  RH  058%=      5-min Rain = 0
KSW1 200938Z 14009KT 25/16 A3007 RMK A01 T02510163  RH  058%=      5-min Rain = 0
KSW1 200939Z 14008KT 25/16 A3007 RMK A01 T02520164  RH  058%=      5-min Rain = 0
KSW1 200940Z 15008KT 25/16 A3007 RMK A01 T02510163  RH  058%=      5-min Rain = 0
KSW1 200941Z 15008KT 25/16 A3007 RMK A01 T02510163  RH  058%=      5-min Rain = 0
KSW1 200942Z 14008KT 25/16 A3007 RMK A01 T02500163  RH  058%=      5-min Rain = 0
KSW1 200943Z 15009KT 25/16 A3007 RMK A01 T02510164  RH  058%=      5-min Rain = 0
KSW1 200944Z 15009KT 25/16 A3007 RMK A01 T02500164  RH  059%=      5-min Rain = 0
KSW1 200945Z 15009KT 25/16 A3007 RMK A01 T02500164  RH  059%=      5-min Rain = 0
KSW1 200946Z 15009KT 25/16 A3007 RMK A01 T02500164  RH  059%=      5-min Rain = 0
KSW1 200947Z 14008KT 25/16 A3007 RMK A01 T02500164  RH  059%=      5-min Rain = 0
KSW1 200948Z 15009KT 25/16 A3007 RMK A01 T02490163  RH  059%=      5-min Rain = 0
KSW1 200949Z 15008KT 25/16 A3007 RMK A01 T02490164  RH  059%=      5-min Rain = 0
KSW1 200950Z 15009KT 25/16 A3007 RMK A01 T02480163  RH  059%=      5-min Rain = 0
KSW1 200951Z 15008KT 25/16 A3007 RMK A01 T02490164  RH  059%=      5-min Rain = 0
KSW1 200952Z 15008KT 25/16 A3007 RMK A01 T02490164  RH  059%=      5-min Rain = 0
KSW1 200953Z 15007KT 25/16 A3007 RMK A01 T02480164  RH  059%=      5-min Rain = 0
KSW1 200954Z 15008KT 25/16 A3007 RMK A01 T02480164  RH  059%=      5-min Rain = 0
KSW1 200955Z 15008KT 25/16 A3007 RMK A01 T02480164  RH  059%=      5-min Rain = 0
KSW1 200956Z 15007KT 25/16 A3007 RMK A01 T02480164  RH  060%=      5-min Rain = 0
KSW1 200957Z 15008KT 25/16 A3007 RMK A01 T02480164  RH  060%=      5-min Rain = 0
KSW1 200958Z 15007KT 25/16 A3007 RMK A01 T02470164  RH  060%=      5-min Rain = 0
KSW1 200959Z 15008KT 25/16 A3007 RMK A01 T02470164  RH  060%=      5-min Rain = 0
KSW1 201000Z 15008KT 25/16 A3007 RMK A01 T02460164  RH  060%=      5-min Rain = 0
KSW1 201001Z 15008KT 25/16 A3007 RMK A01 T02460164  RH  060%=      5-min Rain = 0
KSW1 201002Z 15007KT 25/16 A3007 RMK A01 T02460164  RH  060%=      5-min Rain = 0
KSW1 201003Z 15008KT 25/16 A3007 RMK A01 T02450164  RH  060%=      5-min Rain = 0
KSW1 201004Z 15009KT 25/16 A3007 RMK A01 T02450164  RH  060%=      5-min Rain = 0
KSW1 201005Z 15008KT 25/16 A3007 RMK A01 T02450164  RH  060%=      5-min Rain = 0
KSW1 201006Z 16008KT 25/16 A3007 RMK A01 T02450164  RH  060%=      5-min Rain = 0
KSW1 201007Z 16008KT 25/16 A3007 RMK A01 T02450164  RH  061%=      5-min Rain = 0
KSW1 201008Z 15007KT 25/16 A3007 RMK A01 T02450164  RH  061%=      5-min Rain = 0
KSW1 201009Z 16007KT 24/16 A3007 RMK A01 T02440164  RH  061%=      5-min Rain = 0
KSW1 201010Z 16008KT 24/16 A3007 RMK A01 T02420164  RH  062%=      5-min Rain = 0
KSW1 201011Z 16008KT 24/16 A3007 RMK A01 T02410164  RH  062%=      5-min Rain = 0
KSW1 201012Z 16008KT 24/16 A3007 RMK A01 T02390164  RH  062%=      5-min Rain = 0
KSW1 201013Z 16008KT 24/16 A3007 RMK A01 T02390164  RH  063%=      5-min Rain = 0
KSW1 201014Z 16008KT 24/16 A3007 RMK A01 T02390164  RH  063%=      5-min Rain = 0
KSW1 201015Z 16008KT 24/16 A3007 RMK A01 T02380164  RH  063%=      5-min Rain = 0
KSW1 201016Z 16008KT 24/16 A3007 RMK A01 T02380164  RH  063%=      5-min Rain = 0
KSW1 201017Z 16008KT 24/16 A3007 RMK A01 T02380164  RH  063%=      5-min Rain = 0
KSW1 201018Z 16009KT 24/16 A3007 RMK A01 T02380164  RH  063%=      5-min Rain = 0
KSW1 201019Z 15008KT 24/16 A3007 RMK A01 T02380164  RH  063%=      5-min Rain = 0
KSW1 201020Z 15010KT 24/16 A3007 RMK A01 T02380164  RH  063%=      5-min Rain = 0
KSW1 201021Z 15009KT 24/16 A3007 RMK A01 T02380164  RH  063%=      5-min Rain = 0
KSW1 201022Z 15009KT 24/16 A3007 RMK A01 T02380164  RH  063%=      5-min Rain = 0
KSW1 201023Z 15009KT 24/17 A3007 RMK A01 T02390165  RH  063%=      5-min Rain = 0
KSW1 201024Z 15009KT 24/16 A3007 RMK A01 T02390164  RH  063%=      5-min Rain = 0
KSW1 201025Z 15009KT 24/17 A3007 RMK A01 T02390165  RH  063%=      5-min Rain = 0
KSW1 201026Z 15009KT 24/16 A3007 RMK A01 T02390164  RH  063%=      5-min Rain = 0
KSW1 201027Z 15009KT 24/17 A3007 RMK A01 T02390165  RH  063%=      5-min Rain = 0
KSW1 201028Z 15009KT 24/16 A3007 RMK A01 T02390164  RH  063%=      5-min Rain = 0
KSW1 201029Z 15009KT 24/17 A3007 RMK A01 T02390165  RH  063%=      5-min Rain = 0
KSW1 201030Z 15009KT 24/17 A3007 RMK A01 T02390165  RH  063%=      5-min Rain = 0
KSW1 201031Z 15008KT 24/17 A3007 RMK A01 T02390165  RH  063%=      5-min Rain = 0
KSW1 201032Z 15008KT 24/17 A3007 RMK A01 T02390165  RH  063%=      5-min Rain = 0
KSW1 201033Z 15008KT 24/17 A3007 RMK A01 T02390165  RH  063%=      5-min Rain = 0
KSW1 201034Z 15008KT 24/17 A3007 RMK A01 T02380165  RH  063%=      5-min Rain = 0
KSW1 201035Z 15008KT 24/17 A3007 RMK A01 T02380165  RH  064%=      5-min Rain = 0
KSW1 201036Z 15009KT 24/17 A3007 RMK A01 T02380165  RH  064%=      5-min Rain = 0
KSW1 201037Z 15009KT 24/17 A3007 RMK A01 T02370165  RH  064%=      5-min Rain = 0
KSW1 201038Z 15009KT 24/17 A3007 RMK A01 T02370165  RH  064%=      5-min Rain = 0
KSW1 201039Z 15009KT 24/17 A3007 RMK A01 T02370165  RH  064%=      5-min Rain = 0
KSW1 201040Z 15009KT 24/17 A3007 RMK A01 T02370165  RH  064%=      5-min Rain = 0
KSW1 201041Z 15009KT 24/17 A3007 RMK A01 T02370166  RH  064%=      5-min Rain = 0
KSW1 201042Z 15009KT 24/17 A3007 RMK A01 T02370166  RH  064%=      5-min Rain = 0
KSW1 201043Z 15008KT 24/17 A3007 RMK A01 T02370166  RH  064%=      5-min Rain = 0
KSW1 201044Z 15008KT 24/17 A3007 RMK A01 T02370166  RH  065%=      5-min Rain = 0
KSW1 201045Z 16008KT 24/17 A3007 RMK A01 T02360166  RH  065%=      5-min Rain = 0
KSW1 201046Z 16008KT 24/17 A3007 RMK A01 T02360166  RH  065%=      5-min Rain = 0
KSW1 201047Z 16008KT 24/17 A3007 RMK A01 T02360167  RH  065%=      5-min Rain = 0
KSW1 201048Z 16008KT 24/17 A3007 RMK A01 T02370167  RH  065%=      5-min Rain = 0
KSW1 201049Z 16008KT 24/17 A3007 RMK A01 T02360167  RH  065%=      5-min Rain = 0
KSW1 201050Z 16008KT 24/17 A3007 RMK A01 T02370168  RH  065%=      5-min Rain = 0
KSW1 201051Z 16008KT 24/17 A3007 RMK A01 T02360168  RH  065%=      5-min Rain = 0
KSW1 201052Z 16008KT 24/17 A3007 RMK A01 T02360168  RH  065%=      5-min Rain = 0
KSW1 201053Z 15007KT 24/17 A3007 RMK A01 T02360168  RH  066%=      5-min Rain = 0
KSW1 201054Z 15008KT 24/17 A3007 RMK A01 T02360168  RH  066%=      5-min Rain = 0
KSW1 201055Z 15008KT 24/17 A3007 RMK A01 T02360168  RH  066%=      5-min Rain = 0
KSW1 201056Z 16008KT 24/17 A3007 RMK A01 T02360168  RH  066%=      5-min Rain = 0
KSW1 201057Z 16008KT 24/17 A3007 RMK A01 T02360169  RH  066%=      5-min Rain = 0
KSW1 201058Z 16008KT 24/17 A3007 RMK A01 T02350168  RH  066%=      5-min Rain = 0
KSW1 201059Z 16008KT 24/17 A3007 RMK A01 T02350169  RH  066%=      5-min Rain = 0
KSW1 201100Z 16008KT 24/17 A3007 RMK A01 T02350169  RH  066%=      5-min Rain = 0
KSW1 201101Z 16008KT 24/17 A3007 RMK A01 T02350169  RH  066%=      5-min Rain = 0
KSW1 201102Z 17008KT 24/17 A3007 RMK A01 T02360170  RH  066%=      5-min Rain = 0
KSW1 201103Z 17007KT 24/17 A3007 RMK A01 T02360170  RH  066%=      5-min Rain = 0
KSW1 201104Z 17008KT 24/17 A3007 RMK A01 T02370170  RH  066%=      5-min Rain = 0
KSW1 201105Z 17008KT 24/17 A3007 RMK A01 T02370171  RH  066%=      5-min Rain = 0
KSW1 201106Z 16007KT 24/17 A3007 RMK A01 T02380172  RH  066%=      5-min Rain = 0
KSW1 201107Z 16006KT 24/17 A3007 RMK A01 T02390172  RH  066%=      5-min Rain = 0
KSW1 201108Z 16007KT 24/17 A3007 RMK A01 T02390172  RH  066%=      5-min Rain = 0
KSW1 201109Z 16008KT 24/17 A3007 RMK A01 T02400173  RH  066%=      5-min Rain = 0
KSW1 201110Z 17008KT 24/17 A3007 RMK A01 T02400172  RH  066%=      5-min Rain = 0
KSW1 201111Z 17008KT 24/17 A3007 RMK A01 T02400173  RH  066%=      5-min Rain = 0
KSW1 201112Z 17008KT 24/17 A3007 RMK A01 T02410173  RH  066%=      5-min Rain = 0
KSW1 201113Z 17008KT 24/17 A3007 RMK A01 T02410173  RH  066%=      5-min Rain = 0
KSW1 201114Z 17007KT 24/17 A3007 RMK A01 T02420174  RH  066%=      5-min Rain = 0
KSW1 201115Z 17007KT 24/17 A3007 RMK A01 T02420174  RH  066%=      5-min Rain = 0
KSW1 201116Z 17007KT 24/17 A3007 RMK A01 T02420173  RH  066%=      5-min Rain = 0
KSW1 201117Z 17007KT 24/17 A3007 RMK A01 T02420174  RH  066%=      5-min Rain = 0
KSW1 201118Z 18007KT 24/17 A3007 RMK A01 T02420174  RH  066%=      5-min Rain = 0
KSW1 201119Z 18007KT 24/17 A3007 RMK A01 T02420174  RH  066%=      5-min Rain = 0
KSW1 201120Z 18007KT 24/17 A3007 RMK A01 T02430174  RH  065%=      5-min Rain = 0
KSW1 201121Z 18007KT 24/17 A3008 RMK A01 T02430174  RH  065%=      5-min Rain = 0
KSW1 201122Z 18008KT 24/17 A3008 RMK A01 T02440174  RH  065%=      5-min Rain = 0
KSW1 201123Z 18008KT 24/17 A3008 RMK A01 T02440174  RH  065%=      5-min Rain = 0
KSW1 201124Z 18009KT 25/17 A3008 RMK A01 T02450174  RH  064%=      5-min Rain = 0
KSW1 201125Z 18009KT 25/17 A3008 RMK A01 T02460174  RH  064%=      5-min Rain = 0
KSW1 201126Z 18009KT 25/17 A3008 RMK A01 T02460174  RH  064%=      5-min Rain = 0
KSW1 201127Z 17008KT 25/17 A3008 RMK A01 T02460174  RH  064%=      5-min Rain = 0
KSW1 201128Z 17009KT 25/17 A3008 RMK A01 T02460174  RH  064%=      5-min Rain = 0
KSW1 201129Z 17009KT 25/18 A3008 RMK A01 T02460175  RH  064%=      5-min Rain = 0
KSW1 201130Z 17009KT 25/18 A3008 RMK A01 T02460175  RH  065%=      5-min Rain = 0
KSW1 201131Z 17009KT 25/18 A3008 RMK A01 T02460175  RH  065%=      5-min Rain = 0
KSW1 201132Z 17009KT 25/18 A3008 RMK A01 T02460175  RH  065%=      5-min Rain = 0
KSW1 201133Z 17008KT 25/18 A3008 RMK A01 T02460176  RH  065%=      5-min Rain = 0
KSW1 201134Z 17009KT 25/18 A3008 RMK A01 T02470176  RH  065%=      5-min Rain = 0
KSW1 201135Z 17009KT 25/18 A3008 RMK A01 T02460176  RH  065%=      5-min Rain = 0
KSW1 201136Z 17009KT 25/18 A3008 RMK A01 T02460176  RH  065%=      5-min Rain = 0
KSW1 201137Z 17008KT 25/18 A3008 RMK A01 T02460176  RH  065%=      5-min Rain = 0
KSW1 201138Z 17008KT 25/18 A3008 RMK A01 T02470177  RH  065%=      5-min Rain = 0
KSW1 201139Z 16008KT 25/18 A3008 RMK A01 T02460177  RH  065%=      5-min Rain = 0
KSW1 201140Z 17009KT 25/18 A3008 RMK A01 T02460177  RH  065%=      5-min Rain = 0
KSW1 201141Z 17008KT 25/18 A3009 RMK A01 T02460177  RH  065%=      5-min Rain = 0
KSW1 201142Z 17008KT 25/18 A3009 RMK A01 T02470177  RH  065%=      5-min Rain = 0
KSW1 201143Z 17008KT 25/18 A3009 RMK A01 T02470178  RH  065%=      5-min Rain = 0
KSW1 201144Z 17007KT 25/18 A3009 RMK A01 T02470178  RH  065%=      5-min Rain = 0
KSW1 201145Z 16007KT 25/18 A3009 RMK A01 T02470178  RH  065%=      5-min Rain = 0
KSW1 201146Z 16008KT 25/18 A3009 RMK A01 T02460178  RH  066%=      5-min Rain = 0
KSW1 201147Z 16008KT 25/18 A3009 RMK A01 T02450178  RH  066%=      5-min Rain = 0
KSW1 201148Z 16008KT 24/18 A3009 RMK A01 T02440178  RH  066%=      5-min Rain = 0
KSW1 201149Z 16008KT 24/18 A3009 RMK A01 T02440178  RH  067%=      5-min Rain = 0
KSW1 201150Z 16008KT 24/18 A3009 RMK A01 T02430178  RH  067%=      5-min Rain = 0
KSW1 201151Z 16007KT 24/18 A3009 RMK A01 T02430178  RH  067%=      5-min Rain = 0
KSW1 201152Z 16008KT 24/18 A3009 RMK A01 T02420178  RH  067%=      5-min Rain = 0
KSW1 201153Z 17008KT 24/18 A3009 RMK A01 T02420178  RH  068%=      5-min Rain = 0
KSW1 201154Z 17007KT 24/18 A3009 RMK A01 T02410178  RH  068%=      5-min Rain = 0
KSW1 201155Z 17007KT 24/18 A3009 RMK A01 T02410178  RH  068%=      5-min Rain = 0
KSW1 201156Z 16007KT 24/18 A3009 RMK A01 T02410178  RH  068%=      5-min Rain = 0
KSW1 201157Z 17008KT 24/18 A3009 RMK A01 T02400178  RH  068%=      5-min Rain = 0
KSW1 201158Z 17007KT 24/18 A3009 RMK A01 T02400178  RH  068%=      5-min Rain = 0
KSW1 201159Z 17007KT 24/18 A3009 RMK A01 T02400179  RH  068%=      5-min Rain = 0
KSW1 201200Z 17007KT 24/18 A3009 RMK A01 T02390179  RH  069%=      5-min Rain = 0
KSW1 201201Z 18006KT 24/18 A3009 RMK A01 T02400178  RH  069%=      5-min Rain = 0
KSW1 201202Z 18007KT 24/18 A3009 RMK A01 T02400179  RH  069%=      5-min Rain = 0
KSW1 201203Z 18007KT 24/18 A3009 RMK A01 T02400179  RH  068%=      5-min Rain = 0
KSW1 201204Z 18007KT 24/18 A3009 RMK A01 T02420179  RH  068%=      5-min Rain = 0
KSW1 201205Z 18007KT 24/18 A3009 RMK A01 T02420179  RH  068%=      5-min Rain = 0
KSW1 201206Z 18007KT 24/18 A3009 RMK A01 T02420179  RH  068%=      5-min Rain = 0
KSW1 201207Z 18007KT 24/18 A3009 RMK A01 T02420179  RH  068%=      5-min Rain = 0
KSW1 201208Z 18007KT 24/18 A3009 RMK A01 T02420179  RH  068%=      5-min Rain = 0
KSW1 201209Z 18008KT 24/18 A3009 RMK A01 T02420179  RH  068%=      5-min Rain = 0
KSW1 201210Z 18008KT 24/18 A3009 RMK A01 T02430179  RH  068%=      5-min Rain = 0
KSW1 201211Z 18008KT 24/18 A3009 RMK A01 T02430179  RH  068%=      5-min Rain = 0
KSW1 201212Z 18007KT 24/18 A3009 RMK A01 T02430179  RH  068%=      5-min Rain = 0
KSW1 201213Z 18008KT 24/18 A3009 RMK A01 T02430179  RH  068%=      5-min Rain = 0
KSW1 201214Z 19008KT 24/18 A3008 RMK A01 T02430179  RH  068%=      5-min Rain = 0
KSW1 201215Z 20008KT 24/18 A3008 RMK A01 T02430179  RH  068%=      5-min Rain = 0
KSW1 201216Z 20007KT 24/18 A3008 RMK A01 T02430180  RH  068%=      5-min Rain = 0
KSW1 201217Z 20007KT 24/18 A3008 RMK A01 T02430179  RH  068%=      5-min Rain = 0
KSW1 201218Z 20007KT 24/18 A3009 RMK A01 T02420179  RH  068%=      5-min Rain = 0
KSW1 201219Z 19007KT 24/18 A3009 RMK A01 T02420179  RH  068%=      5-min Rain = 0
KSW1 201220Z 19007KT 24/18 A3009 RMK A01 T02420179  RH  068%=      5-min Rain = 0
KSW1 201221Z 19007KT 24/18 A3009 RMK A01 T02420179  RH  068%=      5-min Rain = 0
KSW1 201222Z 19007KT 24/18 A3009 RMK A01 T02420179  RH  068%=      5-min Rain = 0
KSW1 201223Z 19007KT 24/18 A3009 RMK A01 T02410179  RH  068%=      5-min Rain = 0
KSW1 201224Z 19007KT 24/18 A3009 RMK A01 T02410179  RH  068%=      5-min Rain = 0
KSW1 201225Z 19007KT 24/18 A3009 RMK A01 T02410179  RH  068%=      5-min Rain = 0
KSW1 201226Z 19007KT 24/18 A3009 RMK A01 T02420180  RH  068%=      5-min Rain = 0
KSW1 201227Z 18008KT 24/18 A3009 RMK A01 T02410180  RH  068%=      5-min Rain = 0
KSW1 201228Z 19008KT 24/18 A3009 RMK A01 T02420181  RH  068%=      5-min Rain = 0
KSW1 201229Z 18008KT 24/18 A3009 RMK A01 T02420180  RH  068%=      5-min Rain = 0
KSW1 201230Z 19008KT 24/18 A3009 RMK A01 T02420181  RH  068%=      5-min Rain = 0
KSW1 201231Z 19008KT 24/18 A3009 RMK A01 T02420181  RH  068%=      5-min Rain = 0
KSW1 201232Z 19008KT 24/18 A3009 RMK A01 T02430181  RH  068%=      5-min Rain = 0
KSW1 201233Z 19007KT 24/18 A3009 RMK A01 T02430181  RH  068%=      5-min Rain = 0
KSW1 201234Z 19008KT 24/18 A3009 RMK A01 T02430181  RH  068%=      5-min Rain = 0
KSW1 201235Z 19007KT 24/18 A3009 RMK A01 T02440182  RH  068%=      5-min Rain = 0
KSW1 201236Z 19008KT 24/18 A3009 RMK A01 T02440182  RH  068%=      5-min Rain = 0
KSW1 201237Z 19007KT 24/18 A3009 RMK A01 T02440182  RH  068%=      5-min Rain = 0
KSW1 201238Z 19006KT 25/18 A3009 RMK A01 T02450182  RH  068%=      5-min Rain = 0
KSW1 201239Z 19007KT 25/18 A3009 RMK A01 T02450182  RH  068%=      5-min Rain = 0
KSW1 201240Z 19006KT 25/18 A301 RMK A01 T02450182  RH  068%=      5-min Rain = 0
KSW1 201241Z 19007KT 25/18 A301 RMK A01 T02450182  RH  068%=      5-min Rain = 0
KSW1 201242Z 19007KT 25/18 A301 RMK A01 T02450183  RH  068%=      5-min Rain = 0
KSW1 201243Z 18007KT 25/18 A301 RMK A01 T02460183  RH  068%=      5-min Rain = 0
KSW1 201244Z 18008KT 25/18 A301 RMK A01 T02470183  RH  068%=      5-min Rain = 0
KSW1 201245Z 18007KT 25/18 A301 RMK A01 T02470184  RH  068%=      5-min Rain = 0
KSW1 201246Z 19007KT 25/18 A301 RMK A01 T02480184  RH  068%=      5-min Rain = 0
KSW1 201247Z 18007KT 25/18 A301 RMK A01 T02480184  RH  067%=      5-min Rain = 0
KSW1 201248Z 18007KT 25/18 A301 RMK A01 T02480184  RH  067%=      5-min Rain = 0
KSW1 201249Z 18007KT 25/18 A301 RMK A01 T02490184  RH  067%=      5-min Rain = 0
KSW1 201250Z 19007KT 25/18 A301 RMK A01 T02490184  RH  067%=      5-min Rain = 0
KSW1 201251Z 19008KT 25/18 A301 RMK A01 T02500184  RH  067%=      5-min Rain = 0
KSW1 201252Z 19006KT 25/18 A301 RMK A01 T02500184  RH  067%=      5-min Rain = 0
KSW1 201253Z 19007KT 25/18 A301 RMK A01 T02500184  RH  067%=      5-min Rain = 0
KSW1 201254Z 19008KT 25/18 A301 RMK A01 T02500184  RH  067%=      5-min Rain = 0
KSW1 201255Z 19006KT 25/19 A301 RMK A01 T02510185  RH  067%=      5-min Rain = 0
KSW1 201256Z 19006KT 25/19 A301 RMK A01 T02510185  RH  067%=      5-min Rain = 0
KSW1 201257Z 19006KT 25/19 A301 RMK A01 T02520185  RH  066%=      5-min Rain = 0
KSW1 201258Z 19006KT 25/19 A301 RMK A01 T02520185  RH  066%=      5-min Rain = 0
KSW1 201259Z 20006KT 25/19 A301 RMK A01 T02520185  RH  066%=      5-min Rain = 0
KSW1 201300Z 19006KT 25/19 A3009 RMK A01 T02530185  RH  066%=      5-min Rain = 0
KSW1 201301Z 19007KT 25/19 A3009 RMK A01 T02530185  RH  066%=      5-min Rain = 0
KSW1 201302Z 19007KT 25/19 A3009 RMK A01 T02530185  RH  066%=      5-min Rain = 0
KSW1 201303Z 19007KT 25/19 A3009 RMK A01 T02530185  RH  066%=      5-min Rain = 0
KSW1 201304Z 19007KT 25/19 A3009 RMK A01 T02540185  RH  066%=      5-min Rain = 0
KSW1 201305Z 19009KT 25/19 A3009 RMK A01 T02540186  RH  066%=      5-min Rain = 0
KSW1 201306Z 19007KT 26/19 A3009 RMK A01 T02550186  RH  066%=      5-min Rain = 0
KSW1 201307Z 19009KT 26/19 A3009 RMK A01 T02550186  RH  065%=      5-min Rain = 0
KSW1 201308Z 19008KT 26/19 A301 RMK A01 T02560186  RH  065%=      5-min Rain = 0
KSW1 201309Z 19009KT 26/19 A3009 RMK A01 T02560186  RH  065%=      5-min Rain = 0
KSW1 201310Z 19009KT 26/19 A301 RMK A01 T02560187  RH  065%=      5-min Rain = 0
KSW1 201311Z 19009KT 26/19 A3009 RMK A01 T02570187  RH  065%=      5-min Rain = 0
KSW1 201312Z 18008KT 26/19 A301 RMK A01 T02570187  RH  065%=      5-min Rain = 0
KSW1 201313Z 19007KT 26/19 A301 RMK A01 T02580188  RH  065%=      5-min Rain = 0
KSW1 201314Z 19009KT 26/19 A301 RMK A01 T02590188  RH  065%=      5-min Rain = 0
KSW1 201315Z 19007KT 26/19 A301 RMK A01 T02590188  RH  065%=      5-min Rain = 0
KSW1 201316Z 19007KT 26/19 A301 RMK A01 T02590188  RH  065%=      5-min Rain = 0
KSW1 201317Z 20008KT 26/19 A301 RMK A01 T02600188  RH  065%=      5-min Rain = 0
KSW1 201318Z 19009KT 26/19 A301 RMK A01 T02600188  RH  065%=      5-min Rain = 0
KSW1 201319Z 20008KT 26/19 A301 RMK A01 T02600189  RH  065%=      5-min Rain = 0
KSW1 201320Z 20007KT 26/19 A301 RMK A01 T02600189  RH  065%=      5-min Rain = 0
KSW1 201321Z 19008KT 26/19 A301 RMK A01 T02600189  RH  065%=      5-min Rain = 0
KSW1 201322Z 19009KT 26/19 A301 RMK A01 T02610189  RH  065%=      5-min Rain = 0
KSW1 201323Z 19008KT 26/19 A301 RMK A01 T02610190  RH  065%=      5-min Rain = 0
KSW1 201324Z 19008KT 26/19 A301 RMK A01 T02610190  RH  065%=      5-min Rain = 0
KSW1 201325Z 20008KT 26/19 A301 RMK A01 T02620190  RH  065%=      5-min Rain = 0
KSW1 201326Z 20008KT 26/19 A301 RMK A01 T02620190  RH  064%=      5-min Rain = 0
KSW1 201327Z 19010KT 26/19 A301 RMK A01 T02630190  RH  064%=      5-min Rain = 0
KSW1 201328Z 19010KT 26/19 A301 RMK A01 T02630191  RH  065%=      5-min Rain = 0
KSW1 201329Z 19009KT 26/19 A301 RMK A01 T02630191  RH  065%=      5-min Rain = 0
KSW1 201330Z 19009KT 26/19 A301 RMK A01 T02630191  RH  065%=      5-min Rain = 0
KSW1 201331Z 20008KT 26/19 A301 RMK A01 T02630192  RH  065%=      5-min Rain = 0
KSW1 201332Z 20010KT 26/19 A301 RMK A01 T02630191  RH  065%=      5-min Rain = 0
KSW1 201333Z 20009KT 26/19 A301 RMK A01 T02640192  RH  065%=      5-min Rain = 0
KSW1 201334Z 20009KT 27/19 A301 RMK A01 T02650193  RH  064%=      5-min Rain = 0
KSW1 201335Z 19009KT 27/19 A301 RMK A01 T02660193  RH  064%=      5-min Rain = 0
KSW1 201336Z 19008KT 27/19 A301 RMK A01 T02660193  RH  064%=      5-min Rain = 0
KSW1 201337Z 20008KT 27/19 A301 RMK A01 T02670194  RH  064%=      5-min Rain = 0
KSW1 201338Z 20011KT 27/19 A301 RMK A01 T02680193  RH  064%=      5-min Rain = 0
KSW1 201339Z 21008KT 27/19 A301 RMK A01 T02680194  RH  064%=      5-min Rain = 0
KSW1 201340Z 20009KT 27/19 A301 RMK A01 T02670194  RH  064%=      5-min Rain = 0
KSW1 201341Z 21008KT 27/19 A301 RMK A01 T02680194  RH  064%=      5-min Rain = 0
KSW1 201342Z 21009KT 27/19 A301 RMK A01 T02680194  RH  064%=      5-min Rain = 0
KSW1 201343Z 19008KT 27/19 A301 RMK A01 T02680194  RH  064%=      5-min Rain = 0
KSW1 201344Z 19009KT 27/19 A301 RMK A01 T02690194  RH  063%=      5-min Rain = 0
KSW1 201345Z 20009KT 27/19 A301 RMK A01 T02690194  RH  064%=      5-min Rain = 0
KSW1 201346Z 19009KT 27/19 A301 RMK A01 T02690194  RH  064%=      5-min Rain = 0
KSW1 201347Z 20008KT 27/19 A301 RMK A01 T02690194  RH  064%=      5-min Rain = 0
KSW1 201348Z 19008KT 27/19 A301 RMK A01 T02690194  RH  064%=      5-min Rain = 0
KSW1 201349Z 20008KT 27/19 A301 RMK A01 T02690194  RH  064%=      5-min Rain = 0
KSW1 201350Z 20010KT 27/20 A301 RMK A01 T02710195  RH  063%=      5-min Rain = 0
KSW1 201351Z 21010KT 27/20 A301 RMK A01 T02710195  RH  063%=      5-min Rain = 0
KSW1 201352Z 20010KT 27/20 A301 RMK A01 T02710195  RH  063%=      5-min Rain = 0
KSW1 201353Z 20008KT 27/20 A301 RMK A01 T02720195  RH  063%=      5-min Rain = 0
KSW1 201354Z 20010KT 27/20 A301 RMK A01 T02730195  RH  063%=      5-min Rain = 0
KSW1 201355Z 19011KT 27/20 A301 RMK A01 T02730195  RH  062%=      5-min Rain = 0
KSW1 201356Z 19011KT 27/20 A301 RMK A01 T02730196  RH  063%=      5-min Rain = 0
KSW1 201357Z 20011KT 27/20 A301 RMK A01 T02720196  RH  063%=      5-min Rain = 0
KSW1 201358Z 21011KT 27/20 A301 RMK A01 T02730196  RH  063%=      5-min Rain = 0
KSW1 201359Z 19009KT 27/20 A301 RMK A01 T02730197  RH  063%=      5-min Rain = 0
KSW1 201400Z 20010KT 27/20 A301 RMK A01 T02740197  RH  063%=      5-min Rain = 0
KSW1 201401Z 20008KT 28/20 A301 RMK A01 T02750197  RH  062%=      5-min Rain = 0
KSW1 201402Z 20011KT 28/20 A301 RMK A01 T02770197  RH  062%=      5-min Rain = 0
KSW1 201403Z 20010KT 28/20 A301 RMK A01 T02780197  RH  062%=      5-min Rain = 0
KSW1 201404Z 20009KT 28/20 A301 RMK A01 T02770198  RH  062%=      5-min Rain = 0
KSW1 201405Z 19010KT 28/20 A301 RMK A01 T02780197  RH  062%=      5-min Rain = 0
KSW1 201406Z 19012KT 28/20 A301 RMK A01 T02790198  RH  061%=      5-min Rain = 0
KSW1 201407Z 20013KT 28/20 A301 RMK A01 T02790198  RH  061%=      5-min Rain = 0
KSW1 201408Z 20011KT 28/20 A301 RMK A01 T02780198  RH  062%=      5-min Rain = 0
KSW1 201409Z 19008KT 28/20 A301 RMK A01 T02780198  RH  062%=      5-min Rain = 0
KSW1 201410Z 19009KT 28/20 A3011 RMK A01 T02800198  RH  061%=      5-min Rain = 0
KSW1 201411Z 20008KT 28/20 A3011 RMK A01 T02810198  RH  061%=      5-min Rain = 0
KSW1 201412Z 19010KT 28/20 A3011 RMK A01 T02810199  RH  061%=      5-min Rain = 0
KSW1 201413Z 19011KT 28/20 A3011 RMK A01 T02820198  RH  060%=      5-min Rain = 0
KSW1 201414Z 20010KT 28/20 A3011 RMK A01 T02820198  RH  061%=      5-min Rain = 0
KSW1 201415Z 19010KT 28/20 A3011 RMK A01 T02800199  RH  061%=      5-min Rain = 0
KSW1 201416Z 20009KT 28/20 A3011 RMK A01 T02810199  RH  061%=      5-min Rain = 0
KSW1 201417Z 20008KT 28/20 A3011 RMK A01 T02820199  RH  061%=      5-min Rain = 0
KSW1 201418Z 19008KT 28/20 A3011 RMK A01 T02820199  RH  061%=      5-min Rain = 0
KSW1 201419Z 19011KT 28/20 A3011 RMK A01 T02840199  RH  060%=      5-min Rain = 0
KSW1 201420Z 19010KT 28/20 A3011 RMK A01 T02840199  RH  060%=      5-min Rain = 0
KSW1 201421Z 19010KT 28/20 A3011 RMK A01 T02840198  RH  060%=      5-min Rain = 0
KSW1 201422Z 19009KT 28/20 A3011 RMK A01 T02840199  RH  060%=      5-min Rain = 0
KSW1 201423Z 19010KT 28/20 A3011 RMK A01 T02840199  RH  060%=      5-min Rain = 0
KSW1 201424Z 20010KT 28/20 A3011 RMK A01 T02840199  RH  060%=      5-min Rain = 0
KSW1 201425Z 18008KT 28/20 A3011 RMK A01 T02840199  RH  060%=      5-min Rain = 0
KSW1 201426Z 18007KT 29/20 A3011 RMK A01 T02870200  RH  059%=      5-min Rain = 0
KSW1 201427Z 19009KT 29/20 A3011 RMK A01 T02890199  RH  058%=      5-min Rain = 0
KSW1 201428Z 20011KT 29/20 A3011 RMK A01 T02890198  RH  058%=      5-min Rain = 0
KSW1 201429Z 19009KT 29/20 A3011 RMK A01 T02890199  RH  058%=      5-min Rain = 0
KSW1 201430Z 19010KT 29/20 A3011 RMK A01 T02890198  RH  058%=      5-min Rain = 0
KSW1 201431Z 20011KT 29/20 A3011 RMK A01 T02890198  RH  058%=      5-min Rain = 0
KSW1 201432Z 20010KT 29/20 A3011 RMK A01 T02890198  RH  058%=      5-min Rain = 0
KSW1 201433Z 20010KT 29/20 A3011 RMK A01 T02890197  RH  058%=      5-min Rain = 0
KSW1 201434Z 20010KT 29/20 A3011 RMK A01 T02890198  RH  058%=      5-min Rain = 0
KSW1 201435Z 19011KT 29/20 A3011 RMK A01 T02880198  RH  058%=      5-min Rain = 0
KSW1 201436Z 19010KT 29/20 A3011 RMK A01 T02880198  RH  058%=      5-min Rain = 0
KSW1 201437Z 19011KT 29/20 A3011 RMK A01 T02900197  RH  058%=      5-min Rain = 0
KSW1 201438Z 20009KT 29/20 A3011 RMK A01 T02900198  RH  058%=      5-min Rain = 0
KSW1 201439Z 20008KT 29/20 A3011 RMK A01 T02900198  RH  057%=      5-min Rain = 0
KSW1 201440Z 19009KT 29/20 A3011 RMK A01 T02920198  RH  057%=      5-min Rain = 0
KSW1 201441Z 20009KT 29/20 A3011 RMK A01 T02930198  RH  057%=      5-min Rain = 0
KSW1 201442Z 19009KT 29/20 A3011 RMK A01 T02920199  RH  057%=      5-min Rain = 0
KSW1 201443Z 20011KT 29/20 A3011 RMK A01 T02920197  RH  057%=      5-min Rain = 0
KSW1 201444Z 19012KT 29/20 A3011 RMK A01 T02930196  RH  056%=      5-min Rain = 0
KSW1 201445Z 18014KT 29/20 A3011 RMK A01 T02930196  RH  056%=      5-min Rain = 0
KSW1 201446Z 18011KT 29/20 A3011 RMK A01 T02930196  RH  056%=      5-min Rain = 0
KSW1 201447Z 18011KT 29/20 A3011 RMK A01 T02930196  RH  056%=      5-min Rain = 0
KSW1 201448Z 19012KT 30/20 A3011 RMK A01 T02960197  RH  055%=      5-min Rain = 0
KSW1 201449Z 19009G14KT 30/20 A3011 RMK A01 T02960198  RH  055%=      5-min Rain = 0
KSW1 201450Z 20012KT 30/20 A3011 RMK A01 T02960195  RH  055%=      5-min Rain = 0
KSW1 201451Z 20012KT 29/20 A3011 RMK A01 T02940195  RH  055%=      5-min Rain = 0
KSW1 201452Z 21011KT 29/20 A3011 RMK A01 T02930195  RH  056%=      5-min Rain = 0
KSW1 201453Z 20011KT 30/20 A3011 RMK A01 T02950196  RH  055%=      5-min Rain = 0
KSW1 201454Z 21010KT 30/20 A3011 RMK A01 T02960196  RH  055%=      5-min Rain = 0
KSW1 201455Z 21010KT 30/20 A3011 RMK A01 T02980196  RH  054%=      5-min Rain = 0
KSW1 201456Z 21008KT 30/20 A3011 RMK A01 T02970197  RH  055%=      5-min Rain = 0
KSW1 201457Z 20009KT 30/20 A3011 RMK A01 T02970197  RH  055%=      5-min Rain = 0
KSW1 201458Z 20007KT 30/20 A3011 RMK A01 T02970197  RH  055%=      5-min Rain = 0
KSW1 201459Z 20009KT 30/20 A3011 RMK A01 T02990197  RH  054%=      5-min Rain = 0
KSW1 201500Z 20009KT 30/20 A3011 RMK A01 T03000196  RH  054%=      5-min Rain = 0
KSW1 201501Z 19009KT 30/19 A3011 RMK A01 T03010194  RH  053%=      5-min Rain = 0
KSW1 201502Z 18010KT 30/19 A3011 RMK A01 T03010193  RH  053%=      5-min Rain = 0
KSW1 201503Z 18009G14KT 30/19 A3011 RMK A01 T03010194  RH  053%=      5-min Rain = 0
KSW1 201504Z 18012KT 30/20 A3011 RMK A01 T03030195  RH  052%=      5-min Rain = 0
KSW1 201505Z 18012KT 30/19 A3011 RMK A01 T03030194  RH  052%=      5-min Rain = 0
KSW1 201506Z 18010KT 30/19 A3011 RMK A01 T03020194  RH  053%=      5-min Rain = 0
KSW1 201507Z 19011KT 30/19 A3011 RMK A01 T03010194  RH  053%=      5-min Rain = 0
KSW1 201508Z 19009KT 30/19 A3011 RMK A01 T03000193  RH  053%=      5-min Rain = 0
KSW1 201509Z 20010KT 30/19 A3011 RMK A01 T03020194  RH  053%=      5-min Rain = 0
KSW1 201510Z 20010KT 30/20 A3011 RMK A01 T03030195  RH  053%=      5-min Rain = 0
KSW1 201511Z 18009KT 30/20 A3011 RMK A01 T03020195  RH  053%=      5-min Rain = 0
KSW1 201512Z 18011KT 30/19 A3011 RMK A01 T03030194  RH  052%=      5-min Rain = 0
KSW1 201513Z 19013KT 31/19 A3011 RMK A01 T03050192  RH  051%=      5-min Rain = 0
KSW1 201514Z 18011G16KT 30/19 A3011 RMK A01 T03040192  RH  051%=      5-min Rain = 0
KSW1 201515Z 18010KT 31/19 A3011 RMK A01 T03050192  RH  051%=      5-min Rain = 0
KSW1 201516Z 18011KT 31/19 A3011 RMK A01 T03050193  RH  051%=      5-min Rain = 0
KSW1 201517Z 18012KT 31/19 A3011 RMK A01 T03050193  RH  051%=      5-min Rain = 0
KSW1 201518Z 20010KT 31/19 A3011 RMK A01 T03060193  RH  051%=      5-min Rain = 0
KSW1 201519Z 21012KT 31/20 A3011 RMK A01 T03080195  RH  051%=      5-min Rain = 0
KSW1 201520Z 20011KT 31/20 A3011 RMK A01 T03080195  RH  051%=      5-min Rain = 0
KSW1 201521Z 20008KT 31/20 A3011 RMK A01 T03080195  RH  051%=      5-min Rain = 0
KSW1 201522Z 20011KT 31/19 A3011 RMK A01 T03070194  RH  051%=      5-min Rain = 0
KSW1 201523Z 19011KT 31/19 A3011 RMK A01 T03070193  RH  051%=      5-min Rain = 0
KSW1 201524Z 19009KT 31/19 A3011 RMK A01 T03080193  RH  050%=      5-min Rain = 0
KSW1 201525Z 17010KT 31/19 A3011 RMK A01 T03090194  RH  051%=      5-min Rain = 0
KSW1 201526Z 16009KT 31/19 A3011 RMK A01 T03090194  RH  050%=      5-min Rain = 0
KSW1 201527Z 18009KT 31/19 A3011 RMK A01 T03090193  RH  050%=      5-min Rain = 0
KSW1 201528Z 20010KT 31/20 A3012 RMK A01 T03090195  RH  051%=      5-min Rain = 0
KSW1 201529Z 18012KT 31/19 A3012 RMK A01 T03090194  RH  050%=      5-min Rain = 0
KSW1 201530Z 19013KT 31/19 A3012 RMK A01 T03080194  RH  051%=      5-min Rain = 0
KSW1 201531Z 20012KT 31/19 A3012 RMK A01 T03080194  RH  051%=      5-min Rain = 0
KSW1 201532Z 20010KT 31/20 A3012 RMK A01 T03070195  RH  051%=      5-min Rain = 0
KSW1 201533Z 21011KT 31/19 A3012 RMK A01 T03060194  RH  051%=      5-min Rain = 0
KSW1 201534Z 20012KT 31/19 A3012 RMK A01 T03060194  RH  051%=      5-min Rain = 0
KSW1 201535Z 21013KT 31/19 A3012 RMK A01 T03060194  RH  051%=      5-min Rain = 0
KSW1 201536Z 20010KT 31/19 A3012 RMK A01 T03070194  RH  051%=      5-min Rain = 0
KSW1 201537Z 21009KT 31/19 A3012 RMK A01 T03090194  RH  050%=      5-min Rain = 0
KSW1 201538Z 20011KT 31/20 A3012 RMK A01 T03100195  RH  050%=      5-min Rain = 0
KSW1 201539Z 20010KT 31/19 A3012 RMK A01 T03090194  RH  050%=      5-min Rain = 0
KSW1 201540Z 18010KT 31/20 A3012 RMK A01 T03090195  RH  051%=      5-min Rain = 0
KSW1 201541Z 16007KT 31/20 A3012 RMK A01 T03070195  RH  051%=      5-min Rain = 0
KSW1 201542Z 19009KT 31/20 A3012 RMK A01 T03060196  RH  052%=      5-min Rain = 0
KSW1 201543Z 19011KT 31/20 A3012 RMK A01 T03080196  RH  051%=      5-min Rain = 0
KSW1 201544Z 18010KT 31/20 A3012 RMK A01 T03110195  RH  050%=      5-min Rain = 0
KSW1 201545Z 18008KT 31/20 A3012 RMK A01 T03080196  RH  051%=      5-min Rain = 0
KSW1 201546Z 17009KT 31/20 A3012 RMK A01 T03100195  RH  051%=      5-min Rain = 0
KSW1 201547Z 18010KT 31/20 A3012 RMK A01 T03110195  RH  050%=      5-min Rain = 0
KSW1 201548Z 18009KT 31/19 A3012 RMK A01 T03100193  RH  050%=      5-min Rain = 0
KSW1 201549Z 18008KT 31/20 A3012 RMK A01 T03090195  RH  050%=      5-min Rain = 0
KSW1 201550Z 17011KT 31/19 A3012 RMK A01 T03090194  RH  050%=      5-min Rain = 0
KSW1 201551Z 17013KT 31/19 A3012 RMK A01 T03100192  RH  050%=      5-min Rain = 0
KSW1 201552Z 17010KT 31/19 A3012 RMK A01 T03100192  RH  050%=      5-min Rain = 0
KSW1 201553Z 17010KT 31/19 A3012 RMK A01 T03100188  RH  048%=      5-min Rain = 0
KSW1 201554Z 18010KT 31/19 A3012 RMK A01 T03100188  RH  048%=      5-min Rain = 0
KSW1 201555Z 19012KT 31/19 A3012 RMK A01 T03110189  RH  048%=      5-min Rain = 0
KSW1 201556Z 19009KT 31/19 A3012 RMK A01 T03120188  RH  048%=      5-min Rain = 0
KSW1 201557Z 18009KT 31/19 A3012 RMK A01 T03130191  RH  048%=      5-min Rain = 0
KSW1 201558Z 20009KT 32/19 A3012 RMK A01 T03150192  RH  048%=      5-min Rain = 0
KSW1 201559Z 20011KT 31/19 A3012 RMK A01 T03140193  RH  049%=      5-min Rain = 0
KSW1 201600Z 19009KT 31/19 A3012 RMK A01 T03120193  RH  049%=      5-min Rain = 0
KSW1 201601Z 20010KT 31/19 A3012 RMK A01 T03100190  RH  049%=      5-min Rain = 0
KSW1 201602Z 18009KT 31/19 A3012 RMK A01 T03140189  RH  047%=      5-min Rain = 0
KSW1 201603Z 17012KT 32/19 A3012 RMK A01 T03170190  RH  047%=      5-min Rain = 0
KSW1 201604Z 18012KT 32/19 A3013 RMK A01 T03170191  RH  047%=      5-min Rain = 0
KSW1 201605Z 18011KT 32/19 A3013 RMK A01 T03150191  RH  048%=      5-min Rain = 0
KSW1 201606Z 18010KT 31/19 A3013 RMK A01 T03140192  RH  048%=      5-min Rain = 0
KSW1 201607Z 19010KT 31/19 A3013 RMK A01 T03120192  RH  049%=      5-min Rain = 0
KSW1 201608Z 19011KT 31/19 A3013 RMK A01 T03110190  RH  049%=      5-min Rain = 0
KSW1 201609Z 19008KT 31/19 A3013 RMK A01 T03120192  RH  049%=      5-min Rain = 0
KSW1 201610Z 19010KT 32/19 A3013 RMK A01 T03150191  RH  048%=      5-min Rain = 0
KSW1 201611Z 19008KT 31/19 A3012 RMK A01 T03130191  RH  048%=      5-min Rain = 0
KSW1 201612Z 18010KT 31/19 A3013 RMK A01 T03130192  RH  048%=      5-min Rain = 0
KSW1 201613Z 17011KT 32/19 A3012 RMK A01 T03150192  RH  048%=      5-min Rain = 0
KSW1 201614Z 17009KT 32/19 A3013 RMK A01 T03170192  RH  048%=      5-min Rain = 0
KSW1 201615Z 17011KT 32/19 A3012 RMK A01 T03160191  RH  047%=      5-min Rain = 0
KSW1 201616Z 18009KT 32/19 A3013 RMK A01 T03200190  RH  046%=      5-min Rain = 0
KSW1 201617Z 19008KT 32/19 A3013 RMK A01 T03220190  RH  046%=      5-min Rain = 0
KSW1 201618Z 19007KT 32/19 A3012 RMK A01 T03220190  RH  046%=      5-min Rain = 0
KSW1 201619Z 19009KT 32/19 A3012 RMK A01 T03220191  RH  046%=      5-min Rain = 0
KSW1 201620Z 17010KT 32/19 A3012 RMK A01 T03200188  RH  046%=      5-min Rain = 0
KSW1 201621Z 16009KT 32/19 A3012 RMK A01 T03190186  RH  045%=      5-min Rain = 0
KSW1 201622Z 14009KT 32/18 A3012 RMK A01 T03190184  RH  045%=      5-min Rain = 0
KSW1 201623Z 18010KT 32/19 A3012 RMK A01 T03230187  RH  045%=      5-min Rain = 0
KSW1 201624Z 16010KT 33/19 A3012 RMK A01 T03250185  RH  043%=      5-min Rain = 0
KSW1 201625Z 15010KT 32/19 A3012 RMK A01 T03220185  RH  044%=      5-min Rain = 0
KSW1 201626Z 16010KT 32/19 A3012 RMK A01 T03210185  RH  045%=      5-min Rain = 0
KSW1 201627Z 16010KT 32/18 A3012 RMK A01 T03230184  RH  044%=      5-min Rain = 0
KSW1 201628Z 16006KT 32/18 A3012 RMK A01 T03220183  RH  044%=      5-min Rain = 0
KSW1 201629Z 19008KT 32/18 A3012 RMK A01 T03200182  RH  044%=      5-min Rain = 0
KSW1 201630Z 15009KT 32/18 A3013 RMK A01 T03220183  RH  044%=      5-min Rain = 0
KSW1 201631Z 15008KT 32/18 A3013 RMK A01 T03240184  RH  043%=      5-min Rain = 0
KSW1 201632Z 16010KT 33/19 A3013 RMK A01 T03250186  RH  044%=      5-min Rain = 0
KSW1 201633Z 17009KT 32/18 A3013 RMK A01 T03230183  RH  043%=      5-min Rain = 0
KSW1 201634Z 17007KT 32/18 A3013 RMK A01 T03200182  RH  044%=      5-min Rain = 0
KSW1 201635Z 19010KT 32/18 A3013 RMK A01 T03190183  RH  044%=      5-min Rain = 0
KSW1 201636Z 20009KT 32/18 A3013 RMK A01 T03220181  RH  043%=      5-min Rain = 0
KSW1 201637Z 20006KT 32/18 A3013 RMK A01 T03230183  RH  043%=      5-min Rain = 0
KSW1 201638Z 20007KT 32/18 A3013 RMK A01 T03240180  RH  042%=      5-min Rain = 0
KSW1 201639Z 18006KT 32/18 A3013 RMK A01 T03210181  RH  043%=      5-min Rain = 0
KSW1 201640Z 15007KT 32/18 A3013 RMK A01 T03220184  RH  044%=      5-min Rain = 0
KSW1 201641Z 16008KT 33/18 A3013 RMK A01 T03250184  RH  043%=      5-min Rain = 0
KSW1 201642Z 15010KT 33/18 A3012 RMK A01 T03260184  RH  043%=      5-min Rain = 0
KSW1 201643Z 13008KT 33/18 A3012 RMK A01 T03250183  RH  043%=      5-min Rain = 0
KSW1 201644Z 14010G15KT 32/18 A3013 RMK A01 T03230181  RH  043%=      5-min Rain = 0
KSW1 201645Z 15013KT 32/18 A3012 RMK A01 T03240179  RH  042%=      5-min Rain = 0
KSW1 201646Z 15011KT 33/18 A3013 RMK A01 T03260178  RH  041%=      5-min Rain = 0
KSW1 201647Z 13007KT 33/18 A3013 RMK A01 T03260178  RH  041%=      5-min Rain = 0
KSW1 201648Z 14006KT 33/18 A3013 RMK A01 T03260180  RH  042%=      5-min Rain = 0
KSW1 201649Z 16008KT 32/18 A3012 RMK A01 T03230181  RH  043%=      5-min Rain = 0
KSW1 201650Z 17011KT 32/18 A3012 RMK A01 T03230181  RH  043%=      5-min Rain = 0
KSW1 201651Z 16009KT 33/18 A3012 RMK A01 T03250180  RH  042%=      5-min Rain = 0
KSW1 201652Z 17007KT 32/18 A3012 RMK A01 T03240178  RH  042%=      5-min Rain = 0
KSW1 201653Z 19006KT 32/18 A3012 RMK A01 T03210178  RH  042%=      5-min Rain = 0
KSW1 201654Z 16006KT 32/18 A3012 RMK A01 T03200178  RH  043%=      5-min Rain = 0
KSW1 201655Z 13009KT 32/18 A3012 RMK A01 T03230181  RH  043%=      5-min Rain = 0
KSW1 201656Z 14009KT 33/19 A3012 RMK A01 T03310185  RH  042%=      5-min Rain = 0
KSW1 201657Z 17010KT 33/18 A3012 RMK A01 T03340183  RH  041%=      5-min Rain = 0
KSW1 201658Z 19011KT 33/18 A3012 RMK A01 T03340178  RH  040%=      5-min Rain = 0
KSW1 201659Z 18011KT 33/18 A3012 RMK A01 T03320176  RH  039%=      5-min Rain = 0
KSW1 201700Z 17008KT 33/18 A3012 RMK A01 T03310178  RH  040%=      5-min Rain = 0
KSW1 201701Z 18006KT 33/18 A3012 RMK A01 T03280179  RH  041%=      5-min Rain = 0
KSW1 201702Z 19008KT 32/18 A3012 RMK A01 T03240179  RH  042%=      5-min Rain = 0
KSW1 201703Z 17007KT 33/18 A3012 RMK A01 T03250179  RH  042%=      5-min Rain = 0
KSW1 201704Z 18009KT 33/18 A3012 RMK A01 T03270182  RH  042%=      5-min Rain = 0
KSW1 201705Z 16008KT 33/19 A3012 RMK A01 T03310185  RH  042%=      5-min Rain = 0
KSW1 201706Z 16009KT 34/19 A3012 RMK A01 T03350186  RH  041%=      5-min Rain = 0
KSW1 201707Z 17005KT 33/19 A3012 RMK A01 T03330185  RH  042%=      5-min Rain = 0
KSW1 201708Z 15005KT 33/18 A3012 RMK A01 T03330184  RH  041%=      5-min Rain = 0
KSW1 201709Z 14011KT 34/18 A3012 RMK A01 T03350184  RH  041%=      5-min Rain = 0
KSW1 201710Z 14012KT 34/18 A3012 RMK A01 T03350184  RH  041%=      5-min Rain = 0
KSW1 201711Z 14011KT 33/18 A3012 RMK A01 T03340184  RH  041%=      5-min Rain = 0
KSW1 201712Z 16010KT 33/18 A3012 RMK A01 T03310183  RH  041%=      5-min Rain = 0
KSW1 201713Z 14014KT 33/18 A3012 RMK A01 T03290182  RH  042%=      5-min Rain = 0
KSW1 201714Z 13010KT 33/18 A3012 RMK A01 T03300181  RH  041%=      5-min Rain = 0
KSW1 201715Z 14010KT 33/18 A3012 RMK A01 T03310181  RH  041%=      5-min Rain = 0
KSW1 201716Z 12008KT 33/18 A3012 RMK A01 T03330180  RH  040%=      5-min Rain = 0
KSW1 201717Z 15010KT 33/18 A3012 RMK A01 T03330180  RH  040%=      5-min Rain = 0
KSW1 201718Z 14006KT 33/18 A3012 RMK A01 T03310180  RH  041%=      5-min Rain = 0
KSW1 201719Z 12011G17KT 33/18 A3012 RMK A01 T03300182  RH  042%=      5-min Rain = 0
KSW1 201720Z 18013G22KT 33/18 A3012 RMK A01 T03330184  RH  041%=      5-min Rain = 0
KSW1 201721Z 18012KT 34/18 A3012 RMK A01 T03350183  RH  041%=      5-min Rain = 0
KSW1 201722Z 19012KT 33/18 A3012 RMK A01 T03340181  RH  040%=      5-min Rain = 0
KSW1 201723Z 19011KT 33/18 A3012 RMK A01 T03320180  RH  041%=      5-min Rain = 0
KSW1 201724Z 18011KT 33/18 A3012 RMK A01 T03330178  RH  040%=      5-min Rain = 0
KSW1 201725Z 16010KT 33/17 A3012 RMK A01 T03340174  RH  039%=      5-min Rain = 0
KSW1 201726Z 15005KT 33/17 A3012 RMK A01 T03310171  RH  039%=      5-min Rain = 0
KSW1 201727Z 15007KT 33/17 A3012 RMK A01 T03290172  RH  039%=      5-min Rain = 0
KSW1 201728Z 17006KT 33/18 A3012 RMK A01 T03290176  RH  040%=      5-min Rain = 0
KSW1 201729Z 17009KT 33/18 A3012 RMK A01 T03310179  RH  040%=      5-min Rain = 0
KSW1 201730Z 19009KT 33/18 A3012 RMK A01 T03340179  RH  040%=      5-min Rain = 0
KSW1 201731Z 18007KT 33/18 A3012 RMK A01 T03320178  RH  040%=      5-min Rain = 0
KSW1 201732Z 17006KT 33/18 A3012 RMK A01 T03290177  RH  040%=      5-min Rain = 0
KSW1 201733Z 16004KT 33/18 A3012 RMK A01 T03310176  RH  040%=      5-min Rain = 0
KSW1 201734Z 17003KT 33/18 A3012 RMK A01 T03290177  RH  040%=      5-min Rain = 0
KSW1 201735Z 15005KT 33/18 A3012 RMK A01 T03310180  RH  041%=      5-min Rain = 0
KSW1 201736Z 16008KT 34/18 A3012 RMK A01 T03350184  RH  041%=      5-min Rain = 0
KSW1 201737Z 16009KT 34/18 A3012 RMK A01 T03350184  RH  041%=      5-min Rain = 0
KSW1 201738Z 18012KT 34/18 A3012 RMK A01 T03360180  RH  039%=      5-min Rain = 0
KSW1 201739Z 19010KT 34/18 A3012 RMK A01 T03370178  RH  039%=      5-min Rain = 0
KSW1 201740Z 16011KT 34/18 A3012 RMK A01 T03360179  RH  039%=      5-min Rain = 0
KSW1 201741Z 17010KT 34/18 A3012 RMK A01 T03360179  RH  039%=      5-min Rain = 0
KSW1 201742Z 18006KT 33/18 A3012 RMK A01 T03340178  RH  040%=      5-min Rain = 0
KSW1 201743Z 15007G12KT 33/18 A3012 RMK A01 T03310179  RH  040%=      5-min Rain = 0
KSW1 201744Z 16010KT 33/18 A3012 RMK A01 T03330182  RH  041%=      5-min Rain = 0
KSW1 201745Z 17008KT 34/18 A3011 RMK A01 T03360183  RH  040%=      5-min Rain = 0
KSW1 201746Z 17007KT 34/18 A3011 RMK A01 T03350183  RH  041%=      5-min Rain = 0
KSW1 201747Z 17008KT 33/18 A3011 RMK A01 T03330182  RH  041%=      5-min Rain = 0
KSW1 201748Z 17011KT 33/18 A3011 RMK A01 T03320182  RH  041%=      5-min Rain = 0
KSW1 201749Z 16013KT 33/18 A3011 RMK A01 T03340183  RH  041%=      5-min Rain = 0
KSW1 201750Z 15010KT 34/18 A3011 RMK A01 T03380182  RH  040%=      5-min Rain = 0
KSW1 201751Z 15012KT 34/18 A3011 RMK A01 T03380181  RH  039%=      5-min Rain = 0
KSW1 201752Z 14010KT 34/18 A3011 RMK A01 T03390180  RH  039%=      5-min Rain = 0
KSW1 201753Z 12008KT 34/18 A3011 RMK A01 T03380180  RH  039%=      5-min Rain = 0
KSW1 201754Z 16008KT 34/18 A3011 RMK A01 T03370179  RH  039%=      5-min Rain = 0
KSW1 201755Z 18010KT 34/17 A3011 RMK A01 T03360174  RH  038%=      5-min Rain = 0
KSW1 201756Z 18009KT 34/17 A3011 RMK A01 T03370171  RH  037%=      5-min Rain = 0
KSW1 201757Z 19008G14KT 34/17 A3011 RMK A01 T03360173  RH  038%=      5-min Rain = 0
KSW1 201758Z 19010KT 34/18 A3011 RMK A01 T03420176  RH  037%=      5-min Rain = 0
KSW1 201759Z 20009KT 34/18 A3011 RMK A01 T03380177  RH  038%=      5-min Rain = 0
KSW1 201800Z 20004KT 34/18 A3011 RMK A01 T03350177  RH  039%=      5-min Rain = 0
KSW1 201801Z 19004KT 34/18 A3011 RMK A01 T03350177  RH  039%=      5-min Rain = 0
KSW1 201802Z 17005KT 33/18 A3011 RMK A01 T03340177  RH  039%=      5-min Rain = 0
KSW1 201803Z 16009KT 34/18 A3011 RMK A01 T03370178  RH  039%=      5-min Rain = 0
KSW1 201804Z 15010KT 34/18 A3011 RMK A01 T03420177  RH  038%=      5-min Rain = 0
KSW1 201805Z 14009KT 34/18 A3011 RMK A01 T03430177  RH  037%=      5-min Rain = 0
KSW1 201806Z 14009KT 34/18 A3011 RMK A01 T03420177  RH  038%=      5-min Rain = 0
KSW1 201807Z 14010KT 34/18 A3011 RMK A01 T03410177  RH  038%=      5-min Rain = 0
KSW1 201808Z 12008KT 34/18 A3011 RMK A01 T03400176  RH  038%=      5-min Rain = 0
KSW1 201809Z 11007KT 34/18 A3011 RMK A01 T03380175  RH  038%=      5-min Rain = 0
KSW1 201810Z 15010KT 34/18 A3011 RMK A01 T03390176  RH  038%=      5-min Rain = 0
KSW1 201811Z 15008KT 34/18 A3011 RMK A01 T03430176  RH  037%=      5-min Rain = 0
KSW1 201812Z 13009KT 34/18 A3011 RMK A01 T03440175  RH  037%=      5-min Rain = 0
KSW1 201813Z 12005KT 34/18 A3011 RMK A01 T03440176  RH  037%=      5-min Rain = 0
KSW1 201814Z 14005KT 34/18 A3011 RMK A01 T03410179  RH  038%=      5-min Rain = 0
KSW1 201815Z 12006KT 34/18 A3011 RMK A01 T03400180  RH  039%=      5-min Rain = 0
KSW1 201816Z 16009KT 34/18 A3011 RMK A01 T03370181  RH  040%=      5-min Rain = 0
KSW1 201817Z 19009G14KT 34/18 A3011 RMK A01 T03400183  RH  040%=      5-min Rain = 0
KSW1 201818Z 19013KT 35/19 A3011 RMK A01 T03450185  RH  039%=      5-min Rain = 0
KSW1 201819Z 20010KT 35/18 A3011 RMK A01 T03470184  RH  038%=      5-min Rain = 0
KSW1 201820Z 21010KT 35/18 A3011 RMK A01 T03450184  RH  038%=      5-min Rain = 0
KSW1 201821Z 19008KT 34/18 A3011 RMK A01 T03440183  RH  039%=      5-min Rain = 0
KSW1 201822Z 18010KT 34/18 A3011 RMK A01 T03420182  RH  039%=      5-min Rain = 0
KSW1 201823Z 17009KT 34/18 A3011 RMK A01 T03400178  RH  038%=      5-min Rain = 0
KSW1 201824Z 17009KT 34/18 A3011 RMK A01 T03370177  RH  039%=      5-min Rain = 0
KSW1 201825Z 17009KT 34/18 A3011 RMK A01 T03360177  RH  039%=      5-min Rain = 0
KSW1 201826Z 17007KT 34/18 A3011 RMK A01 T03360176  RH  039%=      5-min Rain = 0
KSW1 201827Z 18006KT 34/18 A3011 RMK A01 T03370177  RH  039%=      5-min Rain = 0
KSW1 201828Z 17007KT 34/18 A301 RMK A01 T03420179  RH  038%=      5-min Rain = 0
KSW1 201829Z 17008KT 35/18 A301 RMK A01 T03460180  RH  038%=      5-min Rain = 0
KSW1 201830Z 15008G13KT 35/18 A301 RMK A01 T03470181  RH  038%=      5-min Rain = 0
KSW1 201831Z 15011KT 35/18 A301 RMK A01 T03480175  RH  036%=      5-min Rain = 0
KSW1 201832Z 12012KT 35/17 A301 RMK A01 T03470174  RH  036%=      5-min Rain = 0
KSW1 201833Z 12011KT 35/18 A301 RMK A01 T03470175  RH  036%=      5-min Rain = 0
KSW1 201834Z 13011KT 35/18 A301 RMK A01 T03460178  RH  037%=      5-min Rain = 0
KSW1 201835Z 16009KT 35/18 A301 RMK A01 T03450176  RH  037%=      5-min Rain = 0
KSW1 201836Z 16008KT 35/18 A301 RMK A01 T03450176  RH  037%=      5-min Rain = 0
KSW1 201837Z 17009KT 34/18 A301 RMK A01 T03440177  RH  037%=      5-min Rain = 0
KSW1 201838Z 19009KT 35/18 A301 RMK A01 T03470175  RH  036%=      5-min Rain = 0
KSW1 201839Z 19011KT 35/17 A301 RMK A01 T03490173  RH  035%=      5-min Rain = 0
KSW1 201840Z 20008KT 35/17 A301 RMK A01 T03490171  RH  035%=      5-min Rain = 0
KSW1 201841Z 19009KT 34/17 A301 RMK A01 T03440171  RH  036%=      5-min Rain = 0
KSW1 201842Z 20008KT 34/17 A301 RMK A01 T03410170  RH  036%=      5-min Rain = 0
KSW1 201843Z 20007KT 34/17 A301 RMK A01 T03410170  RH  036%=      5-min Rain = 0
KSW1 201844Z 19008KT 34/17 A301 RMK A01 T03420174  RH  037%=      5-min Rain = 0
KSW1 201845Z 18005KT 34/17 A301 RMK A01 T03400174  RH  037%=      5-min Rain = 0
KSW1 201846Z 16008KT 34/18 A301 RMK A01 T03400176  RH  038%=      5-min Rain = 0
KSW1 201847Z 14012KT 35/18 A301 RMK A01 T03450176  RH  037%=      5-min Rain = 0
KSW1 201848Z 14011KT 35/17 A301 RMK A01 T03480173  RH  035%=      5-min Rain = 0
KSW1 201849Z 14011KT 35/17 A301 RMK A01 T03470173  RH  036%=      5-min Rain = 0
KSW1 201850Z 15008KT 35/17 A301 RMK A01 T03470173  RH  036%=      5-min Rain = 0
KSW1 201851Z 12009KT 35/17 A301 RMK A01 T03480173  RH  036%=      5-min Rain = 0
KSW1 201852Z 11008KT 35/17 A301 RMK A01 T03480173  RH  035%=      5-min Rain = 0
KSW1 201853Z 12007KT 35/17 A301 RMK A01 T03480171  RH  035%=      5-min Rain = 0
KSW1 201854Z 10007KT 35/17 A301 RMK A01 T03470171  RH  035%=      5-min Rain = 0
KSW1 201855Z 08007KT 34/17 A301 RMK A01 T03430171  RH  036%=      5-min Rain = 0
KSW1 201856Z 13005KT 34/17 A301 RMK A01 T03420172  RH  036%=      5-min Rain = 0
KSW1 201857Z 11008KT 34/17 A301 RMK A01 T03420173  RH  037%=      5-min Rain = 0
KSW1 201858Z 13009KT 35/17 A301 RMK A01 T03460170  RH  035%=      5-min Rain = 0
KSW1 201859Z 15011G16KT 35/17 A301 RMK A01 T03500173  RH  035%=      5-min Rain = 0
KSW1 201900Z 14012KT 35/17 A301 RMK A01 T03530171  RH  034%=      5-min Rain = 0
KSW1 201901Z 14010KT 35/17 A301 RMK A01 T03540173  RH  034%=      5-min Rain = 0
KSW1 201902Z 14008KT 36/17 A301 RMK A01 T03570171  RH  033%=      5-min Rain = 0
KSW1 201903Z 11010KT 35/17 A301 RMK A01 T03530165  RH  033%=      5-min Rain = 0
KSW1 201904Z 10006KT 35/16 A301 RMK A01 T03500163  RH  033%=      5-min Rain = 0
KSW1 201905Z 09004KT 35/17 A301 RMK A01 T03460168  RH  035%=      5-min Rain = 0
KSW1 201906Z 11005KT 35/17 A301 RMK A01 T03480171  RH  035%=      5-min Rain = 0
KSW1 201907Z 15005KT 35/17 A301 RMK A01 T03520173  RH  035%=      5-min Rain = 0
KSW1 201908Z 17006KT 35/17 A301 RMK A01 T03540174  RH  035%=      5-min Rain = 0
KSW1 201909Z 19007KT 35/18 A301 RMK A01 T03520175  RH  035%=      5-min Rain = 0
KSW1 201910Z 19006KT 35/18 A301 RMK A01 T03470176  RH  036%=      5-min Rain = 0
KSW1 201911Z 20009KT 35/18 A3009 RMK A01 T03480178  RH  036%=      5-min Rain = 0
KSW1 201912Z 19008KT 35/18 A3009 RMK A01 T03530178  RH  036%=      5-min Rain = 0
KSW1 201913Z 19008KT 36/18 A3009 RMK A01 T03560178  RH  035%=      5-min Rain = 0
KSW1 201914Z 14010KT 36/18 A3009 RMK A01 T03550177  RH  035%=      5-min Rain = 0
KSW1 201915Z 15012KT 36/18 A3009 RMK A01 T03570177  RH  035%=      5-min Rain = 0
KSW1 201916Z 15012KT 36/18 A3009 RMK A01 T03570177  RH  035%=      5-min Rain = 0
KSW1 201917Z 17012KT 35/18 A3009 RMK A01 T03530176  RH  035%=      5-min Rain = 0
KSW1 201918Z 17013KT 35/18 A3009 RMK A01 T03530176  RH  035%=      5-min Rain = 0
KSW1 201919Z 17012KT 35/17 A3009 RMK A01 T03520174  RH  035%=      5-min Rain = 0
KSW1 201920Z 17009KT 35/17 A3009 RMK A01 T03490174  RH  035%=      5-min Rain = 0
KSW1 201921Z 17010KT 35/17 A3009 RMK A01 T03470172  RH  035%=      5-min Rain = 0
KSW1 201922Z 16011KT 35/17 A3009 RMK A01 T03460171  RH  035%=      5-min Rain = 0
KSW1 201923Z 15009KT 35/17 A3009 RMK A01 T03470169  RH  035%=      5-min Rain = 0
KSW1 201924Z 15005KT 35/17 A3009 RMK A01 T03500171  RH  035%=      5-min Rain = 0
KSW1 201925Z 16004KT 35/17 A3009 RMK A01 T03510172  RH  035%=      5-min Rain = 0
KSW1 201926Z 17008KT 35/18 A3009 RMK A01 T03500175  RH  036%=      5-min Rain = 0
KSW1 201927Z 16010KT 35/18 A3009 RMK A01 T03500178  RH  036%=      5-min Rain = 0
KSW1 201928Z 14007KT 35/18 A3009 RMK A01 T03470177  RH  037%=      5-min Rain = 0
KSW1 201929Z 18009KT 35/18 A3009 RMK A01 T03460178  RH  037%=      5-min Rain = 0
KSW1 201930Z 20007KT 35/18 A3009 RMK A01 T03490176  RH  036%=      5-min Rain = 0
KSW1 201931Z 19007KT 35/18 A3009 RMK A01 T03490176  RH  036%=      5-min Rain = 0
KSW1 201932Z 16008KT 35/18 A3009 RMK A01 T03500176  RH  036%=      5-min Rain = 0
KSW1 201933Z 17009KT 35/17 A3009 RMK A01 T03520173  RH  035%=      5-min Rain = 0
KSW1 201934Z 17008KT 35/17 A3009 RMK A01 T03520173  RH  035%=      5-min Rain = 0
KSW1 201935Z 15010KT 36/17 A3009 RMK A01 T03560172  RH  034%=      5-min Rain = 0
KSW1 201936Z 12013KT 36/17 A3009 RMK A01 T03580168  RH  032%=      5-min Rain = 0
KSW1 201937Z 11012KT 36/16 A3009 RMK A01 T03620164  RH  031%=      5-min Rain = 0
KSW1 201938Z 13011KT 36/16 A3009 RMK A01 T03590164  RH  031%=      5-min Rain = 0
KSW1 201939Z 15012KT 36/17 A3009 RMK A01 T03570167  RH  033%=      5-min Rain = 0
KSW1 201940Z 15010KT 36/17 A3009 RMK A01 T03550166  RH  033%=      5-min Rain = 0
KSW1 201941Z 14012KT 35/17 A3009 RMK A01 T03500167  RH  034%=      5-min Rain = 0
KSW1 201942Z 13011KT 35/17 A3009 RMK A01 T03520172  RH  035%=      5-min Rain = 0
KSW1 201943Z 14012KT 35/17 A3008 RMK A01 T03490174  RH  036%=      5-min Rain = 0
KSW1 201944Z 13014G21KT 35/17 A3008 RMK A01 T03470174  RH  036%=      5-min Rain = 0
KSW1 201945Z 14015G20KT 35/17 A3008 RMK A01 T03470171  RH  035%=      5-min Rain = 0
KSW1 201946Z 14012KT 35/17 A3009 RMK A01 T03480168  RH  034%=      5-min Rain = 0
KSW1 201947Z 14009KT 34/17 A3009 RMK A01 T03440167  RH  035%=      5-min Rain = 0
KSW1 201948Z 13010KT 34/17 A3008 RMK A01 T03440168  RH  035%=      5-min Rain = 0
KSW1 201949Z 13010KT 35/17 A3008 RMK A01 T03470168  RH  035%=      5-min Rain = 0
KSW1 201950Z 13007KT 35/17 A3008 RMK A01 T03490170  RH  035%=      5-min Rain = 0
KSW1 201951Z 16012KT 35/17 A3008 RMK A01 T03520171  RH  034%=      5-min Rain = 0
KSW1 201952Z 14009KT 35/17 A3008 RMK A01 T03540170  RH  034%=      5-min Rain = 0
KSW1 201953Z 12006KT 35/17 A3008 RMK A01 T03520171  RH  034%=      5-min Rain = 0
KSW1 201954Z 16012KT 35/17 A3008 RMK A01 T03530174  RH  035%=      5-min Rain = 0
KSW1 201955Z 17011KT 35/18 A3008 RMK A01 T03540175  RH  035%=      5-min Rain = 0
KSW1 201956Z 17007KT 35/17 A3008 RMK A01 T03500174  RH  035%=      5-min Rain = 0
KSW1 201957Z 14011KT 35/18 A3008 RMK A01 T03470175  RH  036%=      5-min Rain = 0
KSW1 201958Z 13011KT 35/18 A3008 RMK A01 T03480175  RH  036%=      5-min Rain = 0
KSW1 201959Z 13010KT 35/18 A3008 RMK A01 T03490175  RH  036%=      5-min Rain = 0
KSW1 202000Z 14009KT 35/17 A3008 RMK A01 T03510172  RH  035%=      5-min Rain = 0
KSW1 202001Z 15007KT 35/17 A3008 RMK A01 T03510171  RH  034%=      5-min Rain = 0
KSW1 202002Z 13005KT 35/17 A3008 RMK A01 T03500170  RH  035%=      5-min Rain = 0
KSW1 202003Z 17006KT 35/17 A3008 RMK A01 T03490171  RH  035%=      5-min Rain = 0
KSW1 202004Z 12005KT 35/17 A3008 RMK A01 T03500172  RH  035%=      5-min Rain = 0
KSW1 202005Z 13007KT 35/17 A3008 RMK A01 T03530173  RH  035%=      5-min Rain = 0
KSW1 202006Z 15005KT 36/17 A3008 RMK A01 T03550173  RH  034%=      5-min Rain = 0
KSW1 202007Z 13005KT 36/17 A3008 RMK A01 T03550170  RH  033%=      5-min Rain = 0
KSW1 202008Z 13007KT 35/17 A3008 RMK A01 T03510168  RH  034%=      5-min Rain = 0
KSW1 202009Z 10007KT 35/17 A3008 RMK A01 T03490168  RH  034%=      5-min Rain = 0
KSW1 202010Z 13007KT 35/17 A3008 RMK A01 T03480167  RH  034%=      5-min Rain = 0
KSW1 202011Z 14010KT 35/17 A3008 RMK A01 T03490171  RH  035%=      5-min Rain = 0
KSW1 202012Z 13007KT 35/17 A3008 RMK A01 T03530172  RH  034%=      5-min Rain = 0
KSW1 202013Z 16006KT 36/17 A3008 RMK A01 T03560174  RH  034%=      5-min Rain = 0
KSW1 202014Z 17006KT 35/17 A3008 RMK A01 T03540172  RH  034%=      5-min Rain = 0
KSW1 202015Z 15008KT 35/17 A3008 RMK A01 T03540171  RH  034%=      5-min Rain = 0
KSW1 202016Z 13009KT 36/17 A3008 RMK A01 T03550168  RH  033%=      5-min Rain = 0
KSW1 202017Z 11011KT 36/17 A3008 RMK A01 T03550166  RH  033%=      5-min Rain = 0
KSW1 202018Z 11014KT 36/17 A3008 RMK A01 T03560165  RH  032%=      5-min Rain = 0
KSW1 202019Z 11010KT 35/17 A3008 RMK A01 T03510165  RH  033%=      5-min Rain = 0
KSW1 202020Z 11007KT 35/17 A3007 RMK A01 T03460165  RH  034%=      5-min Rain = 0
KSW1 202021Z 12006KT 34/16 A3007 RMK A01 T03420164  RH  035%=      5-min Rain = 0
KSW1 202022Z 11007KT 34/16 A3007 RMK A01 T03400164  RH  035%=      5-min Rain = 0
KSW1 202023Z 14008KT 34/17 A3007 RMK A01 T03430168  RH  035%=      5-min Rain = 0
KSW1 202024Z 13007KT 35/17 A3007 RMK A01 T03490171  RH  035%=      5-min Rain = 0
KSW1 202025Z 17006KT 36/17 A3007 RMK A01 T03550171  RH  034%=      5-min Rain = 0
KSW1 202026Z 14011KT 36/17 A3007 RMK A01 T03600166  RH  032%=      5-min Rain = 0
KSW1 202027Z 14009KT 36/16 A3007 RMK A01 T03610164  RH  031%=      5-min Rain = 0
KSW1 202028Z 14008KT 36/16 A3007 RMK A01 T03580163  RH  032%=      5-min Rain = 0
KSW1 202029Z 15011KT 36/16 A3007 RMK A01 T03560163  RH  032%=      5-min Rain = 0
KSW1 202030Z 16010KT 36/17 A3007 RMK A01 T03560166  RH  033%=      5-min Rain = 0
KSW1 202031Z 15015KT 36/17 A3007 RMK A01 T03590167  RH  032%=      5-min Rain = 0
KSW1 202032Z 15013KT 36/16 A3007 RMK A01 T03560160  RH  031%=      5-min Rain = 0
KSW1 202033Z 15010KT 35/16 A3007 RMK A01 T03540160  RH  032%=      5-min Rain = 0
KSW1 202034Z 16008KT 35/16 A3007 RMK A01 T03540162  RH  032%=      5-min Rain = 0
KSW1 202035Z 17008KT 36/16 A3007 RMK A01 T03550162  RH  032%=      5-min Rain = 0
KSW1 202036Z 16007KT 36/16 A3007 RMK A01 T03550163  RH  032%=      5-min Rain = 0
KSW1 202037Z 13006KT 35/16 A3007 RMK A01 T03540163  RH  032%=      5-min Rain = 0
KSW1 202038Z 14006KT 36/16 A3007 RMK A01 T03550164  RH  032%=      5-min Rain = 0
KSW1 202039Z 14008KT 36/17 A3007 RMK A01 T03550165  RH  032%=      5-min Rain = 0
KSW1 202040Z 14013KT 36/16 A3007 RMK A01 T03560164  RH  032%=      5-min Rain = 0
KSW1 202041Z 14009KT 36/16 A3007 RMK A01 T03600161  RH  031%=      5-min Rain = 0
KSW1 202042Z 16010KT 36/16 A3007 RMK A01 T03590160  RH  031%=      5-min Rain = 0
KSW1 202043Z 17009KT 36/16 A3006 RMK A01 T03560159  RH  031%=      5-min Rain = 0
KSW1 202044Z 15005KT 35/16 A3006 RMK A01 T03500155  RH  031%=      5-min Rain = 0
KSW1 202045Z 11011G19KT 35/16 A3006 RMK A01 T03490157  RH  032%=      5-min Rain = 0
KSW1 202046Z 12009KT 35/16 A3006 RMK A01 T03530157  RH  031%=      5-min Rain = 0
KSW1 202047Z 15013KT 36/16 A3006 RMK A01 T03550159  RH  031%=      5-min Rain = 0
KSW1 202048Z 15010KT 36/16 A3006 RMK A01 T03550159  RH  031%=      5-min Rain = 0
KSW1 202049Z 17011KT 36/16 A3006 RMK A01 T03550158  RH  031%=      5-min Rain = 0
KSW1 202050Z 15009KT 36/16 A3006 RMK A01 T03550158  RH  031%=      5-min Rain = 0
KSW1 202051Z 15006KT 36/16 A3006 RMK A01 T03590162  RH  031%=      5-min Rain = 0
KSW1 202052Z 13006KT 37/17 A3006 RMK A01 T03650165  RH  031%=      5-min Rain = 0
KSW1 202053Z 12009KT 37/16 A3006 RMK A01 T03690164  RH  030%=      5-min Rain = 0
KSW1 202054Z 12010KT 37/16 A3006 RMK A01 T03710160  RH  029%=      5-min Rain = 0
KSW1 202055Z 12006KT 37/16 A3006 RMK A01 T03670162  RH  030%=      5-min Rain = 0
KSW1 202056Z 18008KT 37/16 A3006 RMK A01 T03660163  RH  030%=      5-min Rain = 0
KSW1 202057Z 19005KT 36/16 A3006 RMK A01 T03630161  RH  030%=      5-min Rain = 0
KSW1 202058Z 18007KT 36/16 A3006 RMK A01 T03590157  RH  030%=      5-min Rain = 0
KSW1 202059Z 18006KT 36/15 A3006 RMK A01 T03570151  RH  029%=      5-min Rain = 0
KSW1 202100Z 18006KT 35/15 A3006 RMK A01 T03540150  RH  030%=      5-min Rain = 0
KSW1 202101Z 16006KT 35/16 A3006 RMK A01 T03530155  RH  031%=      5-min Rain = 0
KSW1 202102Z 16008KT 35/16 A3006 RMK A01 T03530159  RH  032%=      5-min Rain = 0
KSW1 202103Z 13009KT 35/16 A3006 RMK A01 T03520161  RH  032%=      5-min Rain = 0
KSW1 202104Z 13006KT 35/16 A3005 RMK A01 T03490161  RH  033%=      5-min Rain = 0
KSW1 202105Z 13008KT 35/16 A3005 RMK A01 T03480162  RH  033%=      5-min Rain = 0
KSW1 202106Z 14009KT 35/16 A3005 RMK A01 T03520164  RH  033%=      5-min Rain = 0
KSW1 202107Z 15010KT 36/16 A3005 RMK A01 T03590164  RH  032%=      5-min Rain = 0
KSW1 202108Z 15007KT 36/16 A3005 RMK A01 T03610164  RH  031%=      5-min Rain = 0
KSW1 202109Z 16006KT 36/16 A3005 RMK A01 T03600163  RH  031%=      5-min Rain = 0
KSW1 202110Z 16006KT 36/16 A3005 RMK A01 T03600163  RH  031%=      5-min Rain = 0
KSW1 202111Z 17006KT 36/16 A3005 RMK A01 T03610164  RH  031%=      5-min Rain = 0
KSW1 202112Z 15003KT 36/16 A3005 RMK A01 T03590163  RH  031%=      5-min Rain = 0
KSW1 202113Z 18006KT 36/16 A3005 RMK A01 T03580163  RH  032%=      5-min Rain = 0
KSW1 202114Z 16008KT 36/16 A3005 RMK A01 T03580163  RH  031%=      5-min Rain = 0
KSW1 202115Z 10008G13KT 36/16 A3005 RMK A01 T03590158  RH  030%=      5-min Rain = 0
KSW1 202116Z 13006KT 36/16 A3005 RMK A01 T03610159  RH  030%=      5-min Rain = 0
KSW1 202117Z 13010KT 36/16 A3005 RMK A01 T03610159  RH  030%=      5-min Rain = 0
KSW1 202118Z 15006G11KT 36/16 A3005 RMK A01 T03600156  RH  030%=      5-min Rain = 0
KSW1 202119Z 16007KT 36/16 A3005 RMK A01 T03600156  RH  030%=      5-min Rain = 0
KSW1 202120Z 15009KT 36/16 A3005 RMK A01 T03640155  RH  029%=      5-min Rain = 0
KSW1 202121Z 14009KT 37/16 A3005 RMK A01 T03680157  RH  029%=      5-min Rain = 0
KSW1 202122Z 15008KT 37/15 A3005 RMK A01 T03650154  RH  029%=      5-min Rain = 0
KSW1 202123Z 18005KT 36/15 A3005 RMK A01 T03640148  RH  028%=      5-min Rain = 0
KSW1 202124Z 18006KT 36/15 A3005 RMK A01 T03640147  RH  027%=      5-min Rain = 0
KSW1 202125Z 17008KT 36/15 A3005 RMK A01 T03620153  RH  029%=      5-min Rain = 0
KSW1 202126Z 18007KT 36/16 A3005 RMK A01 T03600155  RH  030%=      5-min Rain = 0
KSW1 202127Z 19011KT 36/16 A3005 RMK A01 T03580155  RH  030%=      5-min Rain = 0
KSW1 202128Z 14014KT 36/16 A3004 RMK A01 T03620156  RH  030%=      5-min Rain = 0
KSW1 202129Z 13012KT 36/16 A3005 RMK A01 T03640155  RH  029%=      5-min Rain = 0
KSW1 202130Z 13010KT 36/16 A3005 RMK A01 T03620156  RH  029%=      5-min Rain = 0
KSW1 202131Z 12010KT 36/16 A3005 RMK A01 T03640160  RH  030%=      5-min Rain = 0
KSW1 202132Z 13009G14KT 37/16 A3005 RMK A01 T03660160  RH  030%=      5-min Rain = 0
KSW1 202133Z 13008KT 36/16 A3005 RMK A01 T03640159  RH  030%=      5-min Rain = 0
KSW1 202134Z 14003KT 36/16 A3005 RMK A01 T03600158  RH  030%=      5-min Rain = 0
KSW1 202135Z 13005KT 36/16 A3005 RMK A01 T03600158  RH  030%=      5-min Rain = 0
KSW1 202136Z 16004KT 36/16 A3005 RMK A01 T03580157  RH  030%=      5-min Rain = 0
KSW1 202137Z 18005KT 36/16 A3005 RMK A01 T03570156  RH  030%=      5-min Rain = 0
KSW1 202138Z 18006G15KT 36/16 A3005 RMK A01 T03550155  RH  030%=      5-min Rain = 0
KSW1 202139Z 11010KT 36/16 A3005 RMK A01 T03590155  RH  030%=      5-min Rain = 0
KSW1 202140Z 11012KT 36/16 A3005 RMK A01 T03620155  RH  029%=      5-min Rain = 0
KSW1 202141Z 09007G12KT 36/16 A3005 RMK A01 T03620155  RH  029%=      5-min Rain = 0
KSW1 202142Z 10005KT 36/16 A3005 RMK A01 T03600155  RH  030%=      5-min Rain = 0
KSW1 202143Z 14011KT 36/16 A3005 RMK A01 T03610158  RH  030%=      5-min Rain = 0
KSW1 202144Z 15010KT 37/16 A3005 RMK A01 T03660161  RH  030%=      5-min Rain = 0
KSW1 202145Z 17009KT 36/16 A3005 RMK A01 T03630160  RH  030%=      5-min Rain = 0
KSW1 202146Z 16008KT 36/16 A3005 RMK A01 T03610160  RH  030%=      5-min Rain = 0
KSW1 202147Z 17005KT 36/16 A3005 RMK A01 T03630160  RH  030%=      5-min Rain = 0
KSW1 202148Z 18006KT 36/16 A3004 RMK A01 T03640158  RH  029%=      5-min Rain = 0
KSW1 202149Z 19005KT 36/16 A3004 RMK A01 T03620156  RH  030%=      5-min Rain = 0
KSW1 202150Z 19007KT 36/16 A3004 RMK A01 T03590157  RH  030%=      5-min Rain = 0
KSW1 202151Z 17011KT 36/15 A3004 RMK A01 T03610154  RH  029%=      5-min Rain = 0
KSW1 202152Z 17012KT 36/16 A3004 RMK A01 T03610158  RH  030%=      5-min Rain = 0
KSW1 202153Z 14009KT 36/16 A3004 RMK A01 T03630161  RH  030%=      5-min Rain = 0
KSW1 202154Z 11011KT 37/16 A3004 RMK A01 T03680161  RH  029%=      5-min Rain = 0
KSW1 202155Z 11013KT 37/16 A3004 RMK A01 T03700159  RH  029%=      5-min Rain = 0
KSW1 202156Z 12012KT 37/16 A3004 RMK A01 T03690155  RH  028%=      5-min Rain = 0
KSW1 202157Z 13009KT 36/15 A3004 RMK A01 T03620152  RH  029%=      5-min Rain = 0
KSW1 202158Z 15010KT 36/15 A3004 RMK A01 T03580152  RH  029%=      5-min Rain = 0
KSW1 202159Z 13011KT 36/15 A3004 RMK A01 T03570152  RH  029%=      5-min Rain = 0
KSW1 202200Z 12010KT 36/15 A3004 RMK A01 T03550151  RH  030%=      5-min Rain = 0
KSW1 202201Z 12010KT 35/16 A3004 RMK A01 T03540156  RH  031%=      5-min Rain = 0
KSW1 202202Z 10010KT 35/16 A3004 RMK A01 T03510158  RH  032%=      5-min Rain = 0
KSW1 202203Z 11010KT 35/16 A3004 RMK A01 T03510160  RH  032%=      5-min Rain = 0
KSW1 202204Z 13008KT 35/16 A3004 RMK A01 T03510161  RH  032%=      5-min Rain = 0
KSW1 202205Z 13008KT 35/16 A3004 RMK A01 T03500162  RH  033%=      5-min Rain = 0
KSW1 202206Z 13006KT 35/16 A3004 RMK A01 T03490162  RH  033%=      5-min Rain = 0
KSW1 202207Z 12006KT 35/16 A3004 RMK A01 T03490163  RH  033%=      5-min Rain = 0
KSW1 202208Z 12007KT 35/16 A3004 RMK A01 T03510164  RH  033%=      5-min Rain = 0
KSW1 202209Z 13009KT 35/16 A3004 RMK A01 T03530164  RH  033%=      5-min Rain = 0
KSW1 202210Z 11010KT 36/16 A3004 RMK A01 T03580162  RH  031%=      5-min Rain = 0
KSW1 202211Z 11010KT 36/16 A3004 RMK A01 T03590161  RH  031%=      5-min Rain = 0
KSW1 202212Z 11010KT 36/16 A3004 RMK A01 T03610162  RH  031%=      5-min Rain = 0
KSW1 202213Z 13009KT 36/16 A3004 RMK A01 T03630161  RH  030%=      5-min Rain = 0
KSW1 202214Z 12009KT 36/16 A3004 RMK A01 T03640159  RH  030%=      5-min Rain = 0
KSW1 202215Z 11008KT 36/16 A3004 RMK A01 T03620158  RH  030%=      5-min Rain = 0
KSW1 202216Z 13009KT 36/16 A3004 RMK A01 T03570157  RH  030%=      5-min Rain = 0
KSW1 202217Z 13011KT 35/16 A3004 RMK A01 T03530156  RH  031%=      5-min Rain = 0
KSW1 202218Z 14009KT 35/16 A3004 RMK A01 T03500157  RH  032%=      5-min Rain = 0
KSW1 202219Z 14009KT 35/16 A3004 RMK A01 T03500157  RH  032%=      5-min Rain = 0
KSW1 202220Z 14010KT 35/16 A3004 RMK A01 T03500156  RH  032%=      5-min Rain = 0
KSW1 202221Z 14008KT 35/16 A3004 RMK A01 T03490155  RH  031%=      5-min Rain = 0
KSW1 202222Z 14010KT 35/15 A3004 RMK A01 T03470150  RH  031%=      5-min Rain = 0
KSW1 202223Z 13010KT 35/15 A3004 RMK A01 T03470150  RH  031%=      5-min Rain = 0
KSW1 202224Z 12010KT 35/15 A3004 RMK A01 T03460148  RH  031%=      5-min Rain = 0
KSW1 202225Z 13008KT 35/15 A3004 RMK A01 T03460148  RH  031%=      5-min Rain = 0
KSW1 202226Z 13009KT 35/15 A3004 RMK A01 T03460147  RH  031%=      5-min Rain = 0
KSW1 202227Z 14007KT 35/15 A3004 RMK A01 T03460147  RH  030%=      5-min Rain = 0
KSW1 202228Z 15006KT 35/15 A3004 RMK A01 T03460147  RH  030%=      5-min Rain = 0
KSW1 202229Z 16006KT 35/15 A3004 RMK A01 T03460146  RH  030%=      5-min Rain = 0
KSW1 202230Z 15006KT 35/14 A3004 RMK A01 T03460144  RH  030%=      5-min Rain = 0
KSW1 202231Z 16006KT 35/14 A3004 RMK A01 T03460141  RH  029%=      5-min Rain = 0
KSW1 202232Z 17005KT 35/14 A3004 RMK A01 T03480141  RH  029%=      5-min Rain = 0
KSW1 202233Z 19005KT 35/14 A3004 RMK A01 T03500143  RH  029%=      5-min Rain = 0
KSW1 202234Z 14009KT 35/15 A3004 RMK A01 T03520147  RH  029%=      5-min Rain = 0
KSW1 202235Z 14012KT 36/15 A3004 RMK A01 T03570151  RH  029%=      5-min Rain = 0
KSW1 202236Z 14012KT 36/15 A3004 RMK A01 T03580150  RH  029%=      5-min Rain = 0
KSW1 202237Z 16011KT 36/15 A3004 RMK A01 T03580149  RH  029%=      5-min Rain = 0
KSW1 202238Z 16010KT 36/15 A3004 RMK A01 T03580147  RH  028%=      5-min Rain = 0
KSW1 202239Z 17009KT 36/15 A3004 RMK A01 T03590148  RH  028%=      5-min Rain = 0
KSW1 202240Z 17010KT 36/15 A3003 RMK A01 T03610150  RH  029%=      5-min Rain = 0
KSW1 202241Z 17011KT 36/15 A3003 RMK A01 T03620150  RH  028%=      5-min Rain = 0
KSW1 202242Z 16008KT 36/15 A3003 RMK A01 T03590150  RH  029%=      5-min Rain = 0
KSW1 202243Z 17010KT 36/15 A3003 RMK A01 T03590146  RH  028%=      5-min Rain = 0
KSW1 202244Z 17008KT 36/14 A3003 RMK A01 T03590144  RH  028%=      5-min Rain = 0
KSW1 202245Z 17007KT 36/15 A3004 RMK A01 T03570145  RH  028%=      5-min Rain = 0
KSW1 202246Z 17007KT 36/15 A3004 RMK A01 T03570149  RH  029%=      5-min Rain = 0
KSW1 202247Z 17007KT 36/15 A3003 RMK A01 T03570151  RH  029%=      5-min Rain = 0
KSW1 202248Z 18005KT 36/15 A3003 RMK A01 T03570151  RH  029%=      5-min Rain = 0
KSW1 202249Z 19004KT 36/15 A3003 RMK A01 T03580151  RH  029%=      5-min Rain = 0
KSW1 202250Z 17004G9KT 36/15 A3003 RMK A01 T03590150  RH  029%=      5-min Rain = 0
KSW1 202251Z 10009KT 36/15 A3003 RMK A01 T03620151  RH  029%=      5-min Rain = 0
KSW1 202252Z 13011KT 36/15 A3003 RMK A01 T03630147  RH  028%=      5-min Rain = 0
KSW1 202253Z 12011KT 36/14 A3003 RMK A01 T03630144  RH  027%=      5-min Rain = 0
KSW1 202254Z 14012KT 36/14 A3003 RMK A01 T03620142  RH  027%=      5-min Rain = 0
KSW1 202255Z 14012KT 36/14 A3003 RMK A01 T03610143  RH  027%=      5-min Rain = 0
KSW1 202256Z 14007KT 36/14 A3003 RMK A01 T03600142  RH  027%=      5-min Rain = 0
KSW1 202257Z 11006KT 36/14 A3003 RMK A01 T03580140  RH  027%=      5-min Rain = 0
KSW1 202258Z 11004KT 36/14 A3003 RMK A01 T03560141  RH  028%=      5-min Rain = 0
KSW1 202259Z 10006KT 36/14 A3003 RMK A01 T03570142  RH  028%=      5-min Rain = 0
KSW1 202300Z 13006KT 36/15 A3003 RMK A01 T03600145  RH  028%=      5-min Rain = 0
KSW1 202301Z 15011KT 36/15 A3003 RMK A01 T03610148  RH  028%=      5-min Rain = 0
KSW1 202302Z 16013KT 36/15 A3003 RMK A01 T03610150  RH  029%=      5-min Rain = 0
KSW1 202303Z 16012KT 36/15 A3003 RMK A01 T03590150  RH  029%=      5-min Rain = 0
KSW1 202304Z 16010KT 36/15 A3003 RMK A01 T03570150  RH  029%=      5-min Rain = 0
KSW1 202305Z 16011KT 36/15 A3003 RMK A01 T03550149  RH  029%=      5-min Rain = 0
KSW1 202306Z 16010KT 36/15 A3003 RMK A01 T03550149  RH  029%=      5-min Rain = 0
KSW1 202307Z 15013KT 36/15 A3003 RMK A01 T03570146  RH  028%=      5-min Rain = 0
KSW1 202308Z 14011KT 36/15 A3003 RMK A01 T03590147  RH  028%=      5-min Rain = 0
KSW1 202309Z 15010KT 36/15 A3003 RMK A01 T03610147  RH  028%=      5-min Rain = 0
KSW1 202310Z 14010KT 36/15 A3003 RMK A01 T03630146  RH  028%=      5-min Rain = 0
KSW1 202311Z 15013G19KT 36/15 A3003 RMK A01 T03630147  RH  028%=      5-min Rain = 0
KSW1 202312Z 14014G19KT 36/15 A3003 RMK A01 T03620146  RH  028%=      5-min Rain = 0
KSW1 202313Z 14009KT 36/15 A3003 RMK A01 T03590145  RH  028%=      5-min Rain = 0
KSW1 202314Z 15009KT 36/15 A3003 RMK A01 T03580146  RH  028%=      5-min Rain = 0
KSW1 202315Z 15009KT 36/15 A3003 RMK A01 T03570145  RH  028%=      5-min Rain = 0
KSW1 202316Z 17007KT 36/15 A3003 RMK A01 T03570145  RH  028%=      5-min Rain = 0
KSW1 202317Z 15008KT 36/15 A3003 RMK A01 T03580146  RH  028%=      5-min Rain = 0
KSW1 202318Z 14008KT 36/15 A3003 RMK A01 T03600146  RH  028%=      5-min Rain = 0
KSW1 202319Z 14010KT 36/15 A3003 RMK A01 T03610147  RH  028%=      5-min Rain = 0
KSW1 202320Z 17011KT 36/15 A3003 RMK A01 T03590146  RH  028%=      5-min Rain = 0
KSW1 202321Z 17008KT 35/15 A3003 RMK A01 T03540145  RH  029%=      5-min Rain = 0
KSW1 202322Z 17009KT 35/15 A3003 RMK A01 T03520146  RH  029%=      5-min Rain = 0
KSW1 202323Z 16010KT 35/15 A3003 RMK A01 T03500147  RH  030%=      5-min Rain = 0
KSW1 202324Z 12008KT 35/15 A3003 RMK A01 T03490147  RH  030%=      5-min Rain = 0
KSW1 202325Z 12010KT 35/15 A3003 RMK A01 T03490145  RH  029%=      5-min Rain = 0
KSW1 202326Z 12008KT 35/14 A3003 RMK A01 T03490142  RH  029%=      5-min Rain = 0
KSW1 202327Z 13010KT 35/14 A3003 RMK A01 T03490142  RH  029%=      5-min Rain = 0
KSW1 202328Z 13009KT 35/14 A3003 RMK A01 T03500142  RH  029%=      5-min Rain = 0
KSW1 202329Z 14009KT 35/15 A3003 RMK A01 T03490145  RH  029%=      5-min Rain = 0
KSW1 202330Z 13008KT 35/15 A3003 RMK A01 T03490146  RH  030%=      5-min Rain = 0
KSW1 202331Z 15009KT 35/15 A3003 RMK A01 T03490148  RH  030%=      5-min Rain = 0
KSW1 202332Z 15010KT 35/15 A3003 RMK A01 T03520148  RH  030%=      5-min Rain = 0
KSW1 202333Z 13007KT 35/15 A3003 RMK A01 T03530148  RH  029%=      5-min Rain = 0
KSW1 202334Z 15007KT 35/15 A3003 RMK A01 T03540148  RH  029%=      5-min Rain = 0
KSW1 202335Z 15007KT 35/15 A3003 RMK A01 T03540148  RH  029%=      5-min Rain = 0
KSW1 202336Z 14009KT 36/15 A3003 RMK A01 T03560148  RH  029%=      5-min Rain = 0
KSW1 202337Z 14010KT 36/15 A3003 RMK A01 T03560149  RH  029%=      5-min Rain = 0
KSW1 202338Z 16012KT 36/15 A3003 RMK A01 T03570148  RH  029%=      5-min Rain = 0
KSW1 202339Z 15014KT 36/15 A3003 RMK A01 T03570147  RH  029%=      5-min Rain = 0
KSW1 202340Z 15011KT 36/15 A3003 RMK A01 T03550147  RH  029%=      5-min Rain = 0
KSW1 202341Z 14013KT 36/15 A3003 RMK A01 T03550146  RH  029%=      5-min Rain = 0
KSW1 202342Z 14011KT 36/15 A3003 RMK A01 T03550146  RH  029%=      5-min Rain = 0
KSW1 202343Z 14009KT 35/15 A3003 RMK A01 T03540146  RH  029%=      5-min Rain = 0
KSW1 202344Z 14009KT 36/15 A3003 RMK A01 T03560146  RH  029%=      5-min Rain = 0
KSW1 202345Z 13010KT 36/15 A3003 RMK A01 T03560147  RH  029%=      5-min Rain = 0
KSW1 202346Z 14012KT 36/15 A3003 RMK A01 T03560145  RH  028%=      5-min Rain = 0
KSW1 202347Z 15007KT 36/15 A3003 RMK A01 T03550146  RH  029%=      5-min Rain = 0
KSW1 202348Z 15010KT 35/15 A3003 RMK A01 T03540147  RH  029%=      5-min Rain = 0
KSW1 202349Z 14010KT 36/15 A3003 RMK A01 T03550147  RH  029%=      5-min Rain = 0
KSW1 202350Z 14013KT 36/15 A3003 RMK A01 T03550146  RH  029%=      5-min Rain = 0
KSW1 202351Z 14010KT 35/15 A3003 RMK A01 T03530146  RH  029%=      5-min Rain = 0
KSW1 202352Z 15011KT 35/15 A3003 RMK A01 T03520146  RH  029%=      5-min Rain = 0
KSW1 202353Z 17011KT 35/15 A3003 RMK A01 T03520146  RH  029%=      5-min Rain = 0
KSW1 202354Z 16012KT 35/15 A3003 RMK A01 T03510146  RH  029%=      5-min Rain = 0
KSW1 202355Z 17013KT 35/15 A3003 RMK A01 T03510146  RH  029%=      5-min Rain = 0
KSW1 202356Z 17012KT 35/15 A3003 RMK A01 T03500146  RH  029%=      5-min Rain = 0
KSW1 202357Z 16011KT 35/15 A3003 RMK A01 T03500146  RH  030%=      5-min Rain = 0
KSW1 202358Z 16011KT 35/15 A3003 RMK A01 T03500146  RH  029%=      5-min Rain = 0
KSW1 202359Z 15010KT 35/15 A3003 RMK A01 T03510145  RH  029%=      5-min Rain = 0
KSW1 210000Z 15012KT 35/15 A3003 RMK A01 T03520146  RH  029%=      5-min Rain = 0
KSW1 210001Z 14010KT 35/15 A3003 RMK A01 T03520146  RH  029%=      5-min Rain = 0
KSW1 210002Z 13010KT 35/15 A3003 RMK A01 T03520145  RH  029%=      5-min Rain = 0
KSW1 210003Z 13011KT 35/14 A3003 RMK A01 T03520144  RH  029%=      5-min Rain = 0
KSW1 210004Z 12011KT 35/14 A3003 RMK A01 T03510143  RH  029%=      5-min Rain = 0
KSW1 210005Z 12010KT 35/14 A3003 RMK A01 T03500143  RH  029%=      5-min Rain = 0
KSW1 210006Z 12011KT 35/14 A3003 RMK A01 T03500142  RH  029%=      5-min Rain = 0
KSW1 210007Z 12010KT 35/14 A3003 RMK A01 T03500142  RH  029%=      5-min Rain = 0
KSW1 210008Z 14009KT 35/14 A3003 RMK A01 T03500142  RH  029%=      5-min Rain = 0
KSW1 210009Z 15010KT 35/14 A3003 RMK A01 T03500142  RH  029%=      5-min Rain = 0
KSW1 210010Z 14012KT 35/14 A3003 RMK A01 T03500142  RH  029%=      5-min Rain = 0
KSW1 210011Z 13011KT 35/14 A3003 RMK A01 T03500141  RH  029%=      5-min Rain = 0
KSW1 210012Z 14010KT 35/14 A3003 RMK A01 T03490140  RH  029%=      5-min Rain = 0
KSW1 210013Z 13010KT 35/14 A3003 RMK A01 T03490140  RH  029%=      5-min Rain = 0
KSW1 210014Z 14011KT 35/14 A3003 RMK A01 T03480140  RH  029%=      5-min Rain = 0
KSW1 210015Z 13011KT 35/14 A3003 RMK A01 T03480139  RH  028%=      5-min Rain = 0
KSW1 210016Z 13011KT 35/14 A3003 RMK A01 T03480139  RH  028%=      5-min Rain = 0
KSW1 210017Z 13010KT 35/14 A3003 RMK A01 T03470139  RH  029%=      5-min Rain = 0
KSW1 210018Z 13011KT 35/14 A3003 RMK A01 T03470141  RH  029%=      5-min Rain = 0
KSW1 210019Z 14009KT 35/14 A3003 RMK A01 T03470141  RH  029%=      5-min Rain = 0
KSW1 210020Z 15011KT 35/14 A3003 RMK A01 T03470143  RH  029%=      5-min Rain = 0
KSW1 210021Z 14010KT 35/14 A3003 RMK A01 T03470144  RH  030%=      5-min Rain = 0
KSW1 210022Z 14010KT 35/14 A3003 RMK A01 T03470144  RH  030%=      5-min Rain = 0
KSW1 210023Z 14010KT 35/14 A3003 RMK A01 T03460143  RH  030%=      5-min Rain = 0
KSW1 210024Z 14008KT 35/14 A3003 RMK A01 T03460143  RH  030%=      5-min Rain = 0
KSW1 210025Z 15006KT 35/14 A3003 RMK A01 T03460144  RH  030%=      5-min Rain = 0
KSW1 210026Z 14008KT 35/15 A3003 RMK A01 T03460145  RH  030%=      5-min Rain = 0
KSW1 210027Z 15008KT 35/15 A3003 RMK A01 T03460145  RH  030%=      5-min Rain = 0
KSW1 210028Z 14007KT 35/15 A3003 RMK A01 T03460145  RH  030%=      5-min Rain = 0
KSW1 210029Z 14009KT 35/15 A3003 RMK A01 T03450145  RH  030%=      5-min Rain = 0
KSW1 210030Z 14009KT 35/15 A3003 RMK A01 T03450145  RH  030%=      5-min Rain = 0
KSW1 210031Z 14008KT 35/15 A3003 RMK A01 T03450145  RH  030%=      5-min Rain = 0
KSW1 210032Z 15007KT 35/15 A3003 RMK A01 T03450145  RH  030%=      5-min Rain = 0
KSW1 210033Z 16007KT 35/15 A3003 RMK A01 T03450145  RH  030%=      5-min Rain = 0
KSW1 210034Z 15007KT 35/15 A3003 RMK A01 T03450145  RH  030%=      5-min Rain = 0
KSW1 210035Z 15009KT 35/15 A3003 RMK A01 T03450145  RH  030%=      5-min Rain = 0
KSW1 210036Z 15008KT 35/14 A3003 RMK A01 T03450144  RH  030%=      5-min Rain = 0
KSW1 210037Z 15009KT 35/15 A3003 RMK A01 T03450145  RH  030%=      5-min Rain = 0
KSW1 210038Z 15007KT 34/14 A3003 RMK A01 T03440144  RH  030%=      5-min Rain = 0
KSW1 210039Z 13007KT 34/15 A3003 RMK A01 T03440145  RH  030%=      5-min Rain = 0
KSW1 210040Z 14006KT 34/15 A3003 RMK A01 T03440145  RH  030%=      5-min Rain = 0
KSW1 210041Z 13008KT 34/15 A3003 RMK A01 T03430145  RH  030%=      5-min Rain = 0
KSW1 210042Z 15008KT 34/15 A3003 RMK A01 T03430145  RH  031%=      5-min Rain = 0
KSW1 210043Z 14009KT 34/15 A3003 RMK A01 T03430146  RH  031%=      5-min Rain = 0
KSW1 210044Z 13010KT 34/15 A3003 RMK A01 T03420147  RH  031%=      5-min Rain = 0
KSW1 210045Z 13011KT 34/15 A3003 RMK A01 T03410147  RH  031%=      5-min Rain = 0
KSW1 210046Z 14011KT 34/15 A3003 RMK A01 T03410147  RH  031%=      5-min Rain = 0
KSW1 210047Z 13009KT 34/15 A3003 RMK A01 T03400148  RH  031%=      5-min Rain = 0
KSW1 210048Z 14010KT 34/15 A3003 RMK A01 T03400148  RH  032%=      5-min Rain = 0
KSW1 210049Z 13009KT 34/15 A3003 RMK A01 T03390148  RH  032%=      5-min Rain = 0
KSW1 210050Z 13010KT 34/15 A3003 RMK A01 T03390148  RH  032%=      5-min Rain = 0
KSW1 210051Z 14012KT 34/15 A3003 RMK A01 T03380149  RH  032%=      5-min Rain = 0
KSW1 210052Z 14011KT 34/15 A3003 RMK A01 T03380148  RH  032%=      5-min Rain = 0
KSW1 210053Z 14012KT 34/15 A3003 RMK A01 T03380149  RH  032%=      5-min Rain = 0
KSW1 210054Z 13012KT 34/15 A3003 RMK A01 T03370148  RH  032%=      5-min Rain = 0
KSW1 210055Z 13010KT 34/15 A3003 RMK A01 T03370149  RH  032%=      5-min Rain = 0
KSW1 210056Z 13010KT 34/15 A3003 RMK A01 T03360149  RH  032%=      5-min Rain = 0
KSW1 210057Z 13012KT 34/15 A3003 RMK A01 T03360148  RH  032%=      5-min Rain = 0
KSW1 210058Z 13011KT 34/15 A3003 RMK A01 T03360148  RH  032%=      5-min Rain = 0
KSW1 210059Z 13012KT 34/15 A3003 RMK A01 T03360148  RH  032%=      5-min Rain = 0
KSW1 210100Z 13010KT 34/15 A3003 RMK A01 T03350148  RH  032%=      5-min Rain = 0
KSW1 210101Z 14009KT 34/15 A3003 RMK A01 T03350148  RH  033%=      5-min Rain = 0
KSW1 210102Z 14009KT 34/15 A3003 RMK A01 T03350149  RH  033%=      5-min Rain = 0
KSW1 210103Z 14011KT 33/15 A3003 RMK A01 T03340149  RH  033%=      5-min Rain = 0
KSW1 210104Z 14009KT 33/15 A3003 RMK A01 T03330148  RH  033%=      5-min Rain = 0
KSW1 210105Z 14010KT 33/15 A3003 RMK A01 T03330148  RH  033%=      5-min Rain = 0
KSW1 210106Z 14009KT 33/15 A3003 RMK A01 T03320147  RH  033%=      5-min Rain = 0
KSW1 210107Z 14010KT 33/15 A3003 RMK A01 T03320147  RH  033%=      5-min Rain = 0
KSW1 210108Z 13010KT 33/15 A3003 RMK A01 T03320147  RH  033%=      5-min Rain = 0
KSW1 210109Z 13009KT 33/15 A3004 RMK A01 T03320147  RH  033%=      5-min Rain = 0
KSW1 210110Z 13009KT 33/15 A3004 RMK A01 T03320147  RH  033%=      5-min Rain = 0
KSW1 210111Z 13008KT 33/15 A3004 RMK A01 T03310147  RH  033%=      5-min Rain = 0
KSW1 210112Z 13007KT 33/15 A3004 RMK A01 T03300147  RH  033%=      5-min Rain = 0
KSW1 210113Z 13008KT 33/15 A3004 RMK A01 T03290146  RH  033%=      5-min Rain = 0
KSW1 210114Z 13008KT 33/15 A3004 RMK A01 T03290147  RH  033%=      5-min Rain = 0
KSW1 210115Z 13007KT 33/15 A3004 RMK A01 T03280146  RH  033%=      5-min Rain = 0
KSW1 210116Z 13007KT 33/15 A3004 RMK A01 T03270146  RH  034%=      5-min Rain = 0
KSW1 210117Z 13007KT 33/15 A3004 RMK A01 T03270146  RH  034%=      5-min Rain = 0
KSW1 210118Z 14007KT 33/15 A3004 RMK A01 T03260146  RH  034%=      5-min Rain = 0
KSW1 210119Z 14007KT 33/15 A3004 RMK A01 T03260146  RH  034%=      5-min Rain = 0
KSW1 210120Z 14006KT 33/15 A3004 RMK A01 T03260147  RH  034%=      5-min Rain = 0
KSW1 210121Z 14007KT 33/15 A3004 RMK A01 T03250147  RH  034%=      5-min Rain = 0
KSW1 210122Z 14007KT 32/15 A3004 RMK A01 T03240146  RH  034%=      5-min Rain = 0
KSW1 210123Z 14006KT 32/15 A3004 RMK A01 T03240147  RH  034%=      5-min Rain = 0
KSW1 210124Z 14006KT 32/15 A3004 RMK A01 T03230147  RH  034%=      5-min Rain = 0
KSW1 210125Z 14006KT 32/15 A3004 RMK A01 T03230147  RH  035%=      5-min Rain = 0
KSW1 210126Z 14006KT 32/15 A3004 RMK A01 T03210147  RH  035%=      5-min Rain = 0
KSW1 210127Z 14006KT 32/15 A3004 RMK A01 T03210147  RH  035%=      5-min Rain = 0
KSW1 210128Z 14007KT 32/15 A3004 RMK A01 T03200147  RH  035%=      5-min Rain = 0
KSW1 210129Z 13007KT 32/15 A3004 RMK A01 T03190147  RH  035%=      5-min Rain = 0
KSW1 210130Z 13006KT 32/15 A3004 RMK A01 T03190147  RH  035%=      5-min Rain = 0
KSW1 210131Z 13006KT 32/15 A3004 RMK A01 T03180147  RH  036%=      5-min Rain = 0
KSW1 210132Z 13007KT 32/15 A3004 RMK A01 T03170147  RH  036%=      5-min Rain = 0
KSW1 210133Z 14006KT 32/15 A3004 RMK A01 T03170147  RH  036%=      5-min Rain = 0
KSW1 210134Z 14007KT 32/15 A3004 RMK A01 T03170147  RH  036%=      5-min Rain = 0
KSW1 210135Z 14006KT 32/15 A3004 RMK A01 T03160147  RH  036%=      5-min Rain = 0
KSW1 210136Z 14006KT 32/15 A3004 RMK A01 T03160147  RH  036%=      5-min Rain = 0
KSW1 210137Z 14006KT 31/15 A3004 RMK A01 T03140147  RH  036%=      5-min Rain = 0
KSW1 210138Z 14006KT 31/15 A3004 RMK A01 T03140148  RH  037%=      5-min Rain = 0
KSW1 210139Z 14006KT 31/15 A3004 RMK A01 T03130147  RH  037%=      5-min Rain = 0
KSW1 210140Z 13006KT 31/15 A3004 RMK A01 T03120148  RH  037%=      5-min Rain = 0
KSW1 210141Z 14006KT 31/15 A3004 RMK A01 T03110148  RH  037%=      5-min Rain = 0
KSW1 210142Z 13005KT 31/15 A3004 RMK A01 T03100147  RH  037%=      5-min Rain = 0
KSW1 210143Z 14006KT 31/15 A3004 RMK A01 T03090147  RH  037%=      5-min Rain = 0
KSW1 210144Z 14006KT 31/15 A3004 RMK A01 T03090147  RH  038%=      5-min Rain = 0
KSW1 210145Z 14005KT 31/15 A3004 RMK A01 T03080147  RH  038%=      5-min Rain = 0
KSW1 210146Z 14005KT 31/15 A3004 RMK A01 T03070147  RH  038%=      5-min Rain = 0
KSW1 210147Z 14005KT 31/15 A3004 RMK A01 T03070148  RH  038%=      5-min Rain = 0
KSW1 210148Z 14005KT 31/15 A3004 RMK A01 T03060147  RH  038%=      5-min Rain = 0
KSW1 210149Z 13005KT 31/15 A3004 RMK A01 T03050147  RH  038%=      5-min Rain = 0
KSW1 210150Z 13005KT 30/15 A3004 RMK A01 T03040147  RH  038%=      5-min Rain = 0
KSW1 210151Z 13005KT 30/15 A3004 RMK A01 T03040147  RH  039%=      5-min Rain = 0
KSW1 210152Z 13005KT 30/15 A3004 RMK A01 T03030147  RH  039%=      5-min Rain = 0
KSW1 210153Z 13005KT 30/15 A3004 RMK A01 T03020147  RH  039%=      5-min Rain = 0
KSW1 210154Z 13005KT 30/15 A3004 RMK A01 T03020147  RH  039%=      5-min Rain = 0
KSW1 210155Z 13005KT 30/15 A3004 RMK A01 T03010147  RH  039%=      5-min Rain = 0
KSW1 210156Z 13005KT 30/15 A3005 RMK A01 T03010147  RH  039%=      5-min Rain = 0
KSW1 210157Z 13005KT 30/15 A3005 RMK A01 T03000147  RH  039%=      5-min Rain = 0
KSW1 210158Z 13005KT 30/15 A3005 RMK A01 T03000146  RH  039%=      5-min Rain = 0
KSW1 210159Z 13005KT 30/15 A3005 RMK A01 T02990146  RH  039%=      5-min Rain = 0
KSW1 210200Z 13005KT 30/15 A3005 RMK A01 T02990147  RH  040%=      5-min Rain = 0
KSW1 210201Z 13006KT 30/15 A3005 RMK A01 T02980147  RH  040%=      5-min Rain = 0
KSW1 210202Z 12006KT 30/15 A3005 RMK A01 T02970147  RH  040%=      5-min Rain = 0
KSW1 210203Z 12006KT 30/15 A3005 RMK A01 T02970147  RH  040%=      5-min Rain = 0
KSW1 210204Z 13006KT 30/15 A3005 RMK A01 T02970147  RH  040%=      5-min Rain = 0
KSW1 210205Z 12006KT 30/15 A3005 RMK A01 T02970147  RH  040%=      5-min Rain = 0
KSW1 210206Z 12006KT 30/15 A3005 RMK A01 T02970147  RH  040%=      5-min Rain = 0
KSW1 210207Z 12006KT 30/15 A3005 RMK A01 T02960147  RH  040%=      5-min Rain = 0
KSW1 210208Z 12006KT 30/15 A3005 RMK A01 T02950147  RH  040%=      5-min Rain = 0
KSW1 210209Z 12006KT 29/15 A3005 RMK A01 T02940146  RH  040%=      5-min Rain = 0
KSW1 210210Z 12006KT 29/15 A3005 RMK A01 T02940147  RH  041%=      5-min Rain = 0
KSW1 210211Z 12007KT 29/15 A3005 RMK A01 T02940147  RH  041%=      5-min Rain = 0
KSW1 210212Z 12007KT 29/15 A3005 RMK A01 T02930147  RH  041%=      5-min Rain = 0
KSW1 210213Z 12006KT 29/15 A3005 RMK A01 T02930147  RH  041%=      5-min Rain = 0
KSW1 210214Z 12006KT 29/15 A3005 RMK A01 T02930147  RH  041%=      5-min Rain = 0
KSW1 210215Z 13006KT 29/15 A3005 RMK A01 T02930147  RH  041%=      5-min Rain = 0
KSW1 210216Z 13006KT 29/15 A3005 RMK A01 T02920147  RH  041%=      5-min Rain = 0
KSW1 210217Z 13007KT 29/15 A3005 RMK A01 T02920148  RH  041%=      5-min Rain = 0
KSW1 210218Z 13007KT 29/15 A3005 RMK A01 T02920148  RH  041%=      5-min Rain = 0
KSW1 210219Z 12007KT 29/15 A3005 RMK A01 T02920148  RH  042%=      5-min Rain = 0
KSW1 210220Z 12007KT 29/15 A3005 RMK A01 T02910148  RH  042%=      5-min Rain = 0
KSW1 210221Z 12007KT 29/15 A3005 RMK A01 T02910148  RH  042%=      5-min Rain = 0
KSW1 210222Z 12007KT 29/15 A3005 RMK A01 T02910148  RH  042%=      5-min Rain = 0
KSW1 210223Z 13007KT 29/15 A3005 RMK A01 T02910148  RH  042%=      5-min Rain = 0
KSW1 210224Z 13007KT 29/15 A3005 RMK A01 T02910148  RH  042%=      5-min Rain = 0
KSW1 210225Z 13007KT 29/15 A3005 RMK A01 T02910148  RH  042%=      5-min Rain = 0
KSW1 210226Z 12007KT 29/15 A3005 RMK A01 T02910148  RH  042%=      5-min Rain = 0
KSW1 210227Z 13007KT 29/15 A3005 RMK A01 T02900148  RH  042%=      5-min Rain = 0
KSW1 210228Z 13006KT 29/15 A3005 RMK A01 T02900148  RH  042%=      5-min Rain = 0
KSW1 210229Z 13006KT 29/15 A3005 RMK A01 T02900148  RH  042%=      5-min Rain = 0
KSW1 210230Z 13006KT 29/15 A3005 RMK A01 T02890148  RH  042%=      5-min Rain = 0
KSW1 210231Z 13006KT 29/15 A3005 RMK A01 T02890148  RH  042%=      5-min Rain = 0
KSW1 210232Z 13006KT 29/15 A3006 RMK A01 T02880148  RH  042%=      5-min Rain = 0
KSW1 210233Z 13006KT 29/15 A3006 RMK A01 T02880148  RH  043%=      5-min Rain = 0
KSW1 210234Z 13006KT 29/15 A3006 RMK A01 T02870148  RH  043%=      5-min Rain = 0
KSW1 210235Z 13006KT 29/15 A3006 RMK A01 T02860148  RH  043%=      5-min Rain = 0
KSW1 210236Z 12006KT 29/15 A3006 RMK A01 T02860148  RH  043%=      5-min Rain = 0
KSW1 210237Z 13006KT 29/15 A3006 RMK A01 T02860148  RH  043%=      5-min Rain = 0
KSW1 210238Z 13006KT 29/15 A3006 RMK A01 T02850148  RH  043%=      5-min Rain = 0
KSW1 210239Z 12006KT 29/15 A3006 RMK A01 T02850148  RH  043%=      5-min Rain = 0
KSW1 210240Z 12006KT 28/15 A3006 RMK A01 T02830148  RH  044%=      5-min Rain = 0
KSW1 210241Z 12007KT 28/15 A3006 RMK A01 T02830148  RH  044%=      5-min Rain = 0
KSW1 210242Z 12007KT 28/15 A3006 RMK A01 T02830148  RH  044%=      5-min Rain = 0
KSW1 210243Z 12007KT 28/15 A3006 RMK A01 T02830148  RH  044%=      5-min Rain = 0
KSW1 210244Z 12007KT 28/15 A3006 RMK A01 T02830148  RH  044%=      5-min Rain = 0
KSW1 210245Z 11007KT 28/15 A3006 RMK A01 T02830148  RH  044%=      5-min Rain = 0
KSW1 210246Z 11007KT 28/15 A3006 RMK A01 T02830148  RH  044%=      5-min Rain = 0
KSW1 210247Z 11007KT 28/15 A3006 RMK A01 T02830148  RH  044%=      5-min Rain = 0
KSW1 210248Z 12007KT 28/15 A3006 RMK A01 T02830148  RH  044%=      5-min Rain = 0
KSW1 210249Z 12007KT 28/15 A3006 RMK A01 T02830148  RH  044%=      5-min Rain = 0
KSW1 210250Z 12007KT 28/15 A3006 RMK A01 T02830148  RH  044%=      5-min Rain = 0
KSW1 210251Z 12007KT 28/15 A3006 RMK A01 T02830148  RH  044%=      5-min Rain = 0
KSW1 210252Z 12007KT 28/15 A3006 RMK A01 T02840148  RH  044%=      5-min Rain = 0
KSW1 210253Z 12007KT 28/15 A3006 RMK A01 T02840148  RH  044%=      5-min Rain = 0
KSW1 210254Z 12007KT 29/15 A3006 RMK A01 T02850149  RH  044%=      5-min Rain = 0
KSW1 210255Z 12008KT 29/15 A3006 RMK A01 T02850149  RH  043%=      5-min Rain = 0
KSW1 210256Z 12007KT 29/15 A3006 RMK A01 T02850149  RH  043%=      5-min Rain = 0
KSW1 210257Z 12008KT 29/15 A3006 RMK A01 T02850149  RH  043%=      5-min Rain = 0
KSW1 210258Z 12008KT 29/15 A3006 RMK A01 T02860149  RH  043%=      5-min Rain = 0
KSW1 210259Z 12008KT 29/15 A3006 RMK A01 T02860149  RH  043%=      5-min Rain = 0
KSW1 210300Z 12008KT 29/15 A3006 RMK A01 T02860149  RH  043%=      5-min Rain = 0
KSW1 210301Z 12007KT 29/15 A3006 RMK A01 T02870149  RH  043%=      5-min Rain = 0
KSW1 210302Z 12007KT 29/15 A3007 RMK A01 T02870149  RH  043%=      5-min Rain = 0
KSW1 210303Z 12008KT 29/15 A3007 RMK A01 T02870148  RH  043%=      5-min Rain = 0
KSW1 210304Z 12008KT 29/15 A3007 RMK A01 T02870149  RH  043%=      5-min Rain = 0
KSW1 210305Z 12007KT 29/15 A3007 RMK A01 T02870149  RH  043%=      5-min Rain = 0
KSW1 210306Z 12007KT 29/15 A3007 RMK A01 T02870148  RH  043%=      5-min Rain = 0
KSW1 210307Z 12008KT 29/15 A3007 RMK A01 T02870149  RH  043%=      5-min Rain = 0
KSW1 210308Z 12007KT 29/15 A3007 RMK A01 T02870149  RH  043%=      5-min Rain = 0
KSW1 210309Z 11008KT 29/15 A3007 RMK A01 T02870149  RH  043%=      5-min Rain = 0
KSW1 210310Z 11008KT 29/15 A3007 RMK A01 T02870149  RH  043%=      5-min Rain = 0
KSW1 210311Z 12008KT 29/15 A3007 RMK A01 T02870148  RH  043%=      5-min Rain = 0
KSW1 210312Z 12008KT 29/15 A3007 RMK A01 T02880148  RH  042%=      5-min Rain = 0
KSW1 210313Z 12008KT 29/15 A3007 RMK A01 T02880148  RH  042%=      5-min Rain = 0
KSW1 210314Z 12008KT 29/15 A3007 RMK A01 T02880147  RH  042%=      5-min Rain = 0
KSW1 210315Z 11008KT 29/15 A3007 RMK A01 T02890147  RH  042%=      5-min Rain = 0
KSW1 210316Z 12008KT 29/15 A3007 RMK A01 T02890147  RH  042%=      5-min Rain = 0
KSW1 210317Z 11007KT 29/15 A3007 RMK A01 T02900147  RH  042%=      5-min Rain = 0
KSW1 210318Z 11008KT 29/15 A3007 RMK A01 T02900147  RH  042%=      5-min Rain = 0
KSW1 210319Z 11007KT 29/15 A3007 RMK A01 T02900147  RH  042%=      5-min Rain = 0
KSW1 210320Z 12007KT 29/15 A3007 RMK A01 T02900146  RH  042%=      5-min Rain = 0
KSW1 210321Z 11007KT 29/15 A3007 RMK A01 T02900146  RH  041%=      5-min Rain = 0
KSW1 210322Z 12007KT 29/15 A3007 RMK A01 T02900145  RH  041%=      5-min Rain = 0
KSW1 210323Z 12007KT 29/15 A3007 RMK A01 T02900145  RH  041%=      5-min Rain = 0
KSW1 210324Z 12007KT 29/15 A3007 RMK A01 T02900145  RH  041%=      5-min Rain = 0
KSW1 210325Z 12007KT 29/15 A3007 RMK A01 T02910145  RH  041%=      5-min Rain = 0
KSW1 210326Z 12008KT 29/15 A3007 RMK A01 T02910145  RH  041%=      5-min Rain = 0
KSW1 210327Z 12008KT 29/15 A3007 RMK A01 T02910145  RH  041%=      5-min Rain = 0
KSW1 210328Z 12008KT 29/14 A3007 RMK A01 T02910144  RH  041%=      5-min Rain = 0
KSW1 210329Z 12008KT 29/15 A3007 RMK A01 T02920145  RH  041%=      5-min Rain = 0
KSW1 210330Z 12008KT 29/14 A3007 RMK A01 T02920144  RH  040%=      5-min Rain = 0
KSW1 210331Z 12008KT 29/14 A3007 RMK A01 T02920144  RH  040%=      5-min Rain = 0
KSW1 210332Z 12008KT 29/14 A3007 RMK A01 T02930144  RH  040%=      5-min Rain = 0
KSW1 210333Z 12007KT 29/14 A3007 RMK A01 T02930144  RH  040%=      5-min Rain = 0
KSW1 210334Z 12008KT 29/14 A3007 RMK A01 T02930144  RH  040%=      5-min Rain = 0
KSW1 210335Z 12008KT 29/14 A3007 RMK A01 T02920144  RH  040%=      5-min Rain = 0
KSW1 210336Z 12007KT 29/14 A3007 RMK A01 T02920144  RH  040%=      5-min Rain = 0
KSW1 210337Z 12007KT 29/15 A3007 RMK A01 T02920145  RH  041%=      5-min Rain = 0
KSW1 210338Z 12007KT 29/15 A3007 RMK A01 T02920145  RH  041%=      5-min Rain = 0
KSW1 210339Z 12006KT 29/15 A3007 RMK A01 T02910145  RH  041%=      5-min Rain = 0
KSW1 210340Z 12006KT 29/14 A3007 RMK A01 T02900144  RH  041%=      5-min Rain = 0
KSW1 210341Z 12006KT 29/14 A3007 RMK A01 T02890144  RH  041%=      5-min Rain = 0
KSW1 210342Z 12006KT 29/14 A3007 RMK A01 T02880144  RH  042%=      5-min Rain = 0
KSW1 210343Z 12006KT 29/15 A3007 RMK A01 T02870145  RH  042%=      5-min Rain = 0
KSW1 210344Z 12005KT 29/15 A3007 RMK A01 T02860145  RH  042%=      5-min Rain = 0
KSW1 210345Z 12006KT 29/14 A3007 RMK A01 T02850144  RH  042%=      5-min Rain = 0
KSW1 210346Z 12006KT 28/14 A3007 RMK A01 T02840144  RH  042%=      5-min Rain = 0
KSW1 210347Z 11006KT 28/15 A3007 RMK A01 T02840145  RH  043%=      5-min Rain = 0
KSW1 210348Z 11006KT 28/14 A3007 RMK A01 T02830144  RH  043%=      5-min Rain = 0
KSW1 210349Z 11007KT 28/14 A3007 RMK A01 T02820144  RH  043%=      5-min Rain = 0
KSW1 210350Z 12007KT 28/14 A3007 RMK A01 T02810144  RH  043%=      5-min Rain = 0
KSW1 210351Z 12007KT 28/14 A3007 RMK A01 T02810144  RH  043%=      5-min Rain = 0
KSW1 210352Z 12007KT 28/14 A3007 RMK A01 T02800143  RH  043%=      5-min Rain = 0
KSW1 210353Z 12007KT 28/14 A3007 RMK A01 T02800144  RH  043%=      5-min Rain = 0
KSW1 210354Z 12008KT 28/14 A3007 RMK A01 T02800144  RH  043%=      5-min Rain = 0
KSW1 210355Z 12009KT 28/14 A3007 RMK A01 T02800144  RH  043%=      5-min Rain = 0
KSW1 210356Z 12009KT 28/14 A3007 RMK A01 T02810144  RH  043%=      5-min Rain = 0
KSW1 210357Z 12010KT 28/14 A3007 RMK A01 T02820144  RH  043%=      5-min Rain = 0
KSW1 210358Z 12009KT 28/15 A3007 RMK A01 T02840145  RH  043%=      5-min Rain = 0
KSW1 210359Z 12009KT 29/15 A3007 RMK A01 T02860145  RH  042%=      5-min Rain = 0
KSW1 210400Z 12009KT 29/15 A3007 RMK A01 T02870145  RH  042%=      5-min Rain = 0
KSW1 210401Z 12009KT 29/15 A3007 RMK A01 T02880145  RH  042%=      5-min Rain = 0
KSW1 210402Z 12009KT 29/15 A3007 RMK A01 T02880145  RH  042%=      5-min Rain = 0
KSW1 210403Z 12009KT 29/15 A3007 RMK A01 T02880145  RH  042%=      5-min Rain = 0
KSW1 210404Z 12009KT 29/15 A3007 RMK A01 T02880145  RH  042%=      5-min Rain = 0
KSW1 210405Z 12009KT 29/15 A3007 RMK A01 T02880145  RH  042%=      5-min Rain = 0
KSW1 210406Z 12008KT 29/15 A3007 RMK A01 T02880146  RH  042%=      5-min Rain = 0
KSW1 210407Z 12008KT 29/15 A3007 RMK A01 T02880145  RH  042%=      5-min Rain = 0
KSW1 210408Z 12008KT 29/15 A3007 RMK A01 T02870145  RH  042%=      5-min Rain = 0
KSW1 210409Z 12008KT 29/15 A3007 RMK A01 T02870146  RH  042%=      5-min Rain = 0
KSW1 210410Z 12007KT 29/15 A3007 RMK A01 T02860146  RH  042%=      5-min Rain = 0
KSW1 210411Z 12008KT 29/15 A3007 RMK A01 T02860146  RH  042%=      5-min Rain = 0
KSW1 210412Z 12007KT 29/15 A3007 RMK A01 T02850146  RH  043%=      5-min Rain = 0
KSW1 210413Z 13008KT 29/15 A3007 RMK A01 T02850146  RH  043%=      5-min Rain = 0
KSW1 210414Z 13007KT 28/15 A3007 RMK A01 T02840145  RH  043%=      5-min Rain = 0
KSW1 210415Z 13007KT 28/15 A3007 RMK A01 T02830146  RH  043%=      5-min Rain = 0
KSW1 210416Z 12008KT 28/15 A3007 RMK A01 T02830146  RH  043%=      5-min Rain = 0
KSW1 210417Z 12007KT 28/15 A3007 RMK A01 T02820145  RH  043%=      5-min Rain = 0
KSW1 210418Z 12008KT 28/15 A3007 RMK A01 T02810146  RH  044%=      5-min Rain = 0
KSW1 210419Z 12007KT 28/15 A3007 RMK A01 T02800145  RH  044%=      5-min Rain = 0
KSW1 210420Z 12007KT 28/15 A3007 RMK A01 T02800146  RH  044%=      5-min Rain = 0
KSW1 210421Z 12007KT 28/15 A3007 RMK A01 T02790145  RH  044%=      5-min Rain = 0
KSW1 210422Z 12007KT 28/15 A3007 RMK A01 T02790146  RH  044%=      5-min Rain = 0
KSW1 210423Z 12007KT 28/15 A3007 RMK A01 T02780146  RH  044%=      5-min Rain = 0
KSW1 210424Z 12007KT 28/15 A3007 RMK A01 T02770146  RH  044%=      5-min Rain = 0
KSW1 210425Z 12007KT 28/15 A3007 RMK A01 T02770146  RH  045%=      5-min Rain = 0
KSW1 210426Z 12007KT 28/15 A3007 RMK A01 T02770146  RH  045%=      5-min Rain = 0
KSW1 210427Z 12008KT 28/15 A3007 RMK A01 T02760146  RH  045%=      5-min Rain = 0
KSW1 210428Z 12008KT 28/15 A3007 RMK A01 T02760146  RH  045%=      5-min Rain = 0
KSW1 210429Z 12008KT 28/15 A3007 RMK A01 T02760146  RH  045%=      5-min Rain = 0
KSW1 210430Z 12009KT 28/15 A3007 RMK A01 T02760146  RH  045%=      5-min Rain = 0
KSW1 210431Z 12008KT 28/15 A3007 RMK A01 T02760146  RH  045%=      5-min Rain = 0
KSW1 210432Z 12008KT 28/15 A3007 RMK A01 T02760146  RH  045%=      5-min Rain = 0
KSW1 210433Z 12008KT 28/15 A3007 RMK A01 T02760146  RH  045%=      5-min Rain = 0
KSW1 210434Z 12008KT 28/15 A3007 RMK A01 T02760147  RH  045%=      5-min Rain = 0
KSW1 210435Z 12008KT 28/15 A3007 RMK A01 T02760147  RH  045%=      5-min Rain = 0
KSW1 210436Z 12008KT 28/15 A3007 RMK A01 T02760147  RH  045%=      5-min Rain = 0
KSW1 210437Z 12008KT 28/15 A3007 RMK A01 T02760147  RH  045%=      5-min Rain = 0
KSW1 210438Z 12008KT 28/15 A3007 RMK A01 T02760147  RH  045%=      5-min Rain = 0
KSW1 210439Z 12009KT 28/15 A3007 RMK A01 T02750147  RH  045%=      5-min Rain = 0
KSW1 210440Z 12008KT 28/15 A3007 RMK A01 T02750147  RH  046%=      5-min Rain = 0
KSW1 210441Z 12008KT 28/15 A3007 RMK A01 T02750147  RH  046%=      5-min Rain = 0
KSW1 210442Z 12008KT 28/15 A3007 RMK A01 T02750147  RH  046%=      5-min Rain = 0
KSW1 210443Z 12009KT 27/15 A3007 RMK A01 T02740147  RH  046%=      5-min Rain = 0
KSW1 210444Z 12008KT 27/15 A3007 RMK A01 T02740147  RH  046%=      5-min Rain = 0
KSW1 210445Z 12008KT 27/15 A3007 RMK A01 T02740148  RH  046%=      5-min Rain = 0
KSW1 210446Z 12008KT 27/15 A3007 RMK A01 T02740148  RH  046%=      5-min Rain = 0
KSW1 210447Z 12008KT 27/15 A3007 RMK A01 T02740148  RH  046%=      5-min Rain = 0
KSW1 210448Z 12008KT 27/15 A3007 RMK A01 T02740148  RH  046%=      5-min Rain = 0
KSW1 210449Z 12008KT 27/15 A3007 RMK A01 T02740148  RH  046%=      5-min Rain = 0
KSW1 210450Z 12008KT 27/15 A3007 RMK A01 T02740148  RH  046%=      5-min Rain = 0
KSW1 210451Z 12008KT 27/15 A3007 RMK A01 T02740148  RH  046%=      5-min Rain = 0
KSW1 210452Z 12008KT 27/15 A3007 RMK A01 T02740148  RH  046%=      5-min Rain = 0
KSW1 210453Z 12008KT 27/15 A3007 RMK A01 T02740148  RH  046%=      5-min Rain = 0
KSW1 210454Z 13008KT 27/15 A3007 RMK A01 T02740148  RH  046%=      5-min Rain = 0
KSW1 210455Z 12008KT 27/15 A3007 RMK A01 T02740148  RH  046%=      5-min Rain = 0
KSW1 210456Z 12008KT 27/15 A3007 RMK A01 T02730148  RH  046%=      5-min Rain = 0
KSW1 210457Z 12008KT 27/15 A3007 RMK A01 T02720148  RH  047%=      5-min Rain = 0
KSW1 210458Z 13008KT 27/15 A3007 RMK A01 T02720149  RH  047%=      5-min Rain = 0
KSW1 210459Z 13009KT 27/15 A3007 RMK A01 T02720149  RH  047%=      5-min Rain = 0

Page generated in 0.0718 seconds.